Wetterdaten: Dienstag, 03.02.2026
Datum Zeit Temp. Aussen Temp. o. S. Temp +5cm Feuchte Auss Luftdruck Regen Sonnenschein Regendauer Solar Windböen Empfang
03.02.2026 00:00 2,9 °C 2,2 °C -1,1 °C 83 % 1001,4 hPa 0,0 l/m² 0 min 0 min 0 W/m² 22,5 km/h (4 Bft) 97,73 %
03.02.2026 00:02 3,0 °C 2,2 °C -1,1 °C 83 % 1001,3 hPa 0,0 l/m² 0 min 0 min 0 W/m² 16,1 km/h (3 Bft) 97,44 %
03.02.2026 00:04 3,0 °C 2,2 °C -1,1 °C 83 % 1001,3 hPa 0,0 l/m² 0 min 0 min 0 W/m² 19,3 km/h (3 Bft) 97,92 %
03.02.2026 00:07 3,0 °C 2,2 °C -1,1 °C 83 % 1001,4 hPa 0,0 l/m² 0 min 0 min 0 W/m² 19,3 km/h (3 Bft) 95,89 %
03.02.2026 00:08 3,0 °C 2,2 °C -1,1 °C 83 % 1001,4 hPa 0,0 l/m² 0 min 0 min 0 W/m² 22,5 km/h (4 Bft) 95,83 %
03.02.2026 00:12 3,0 °C 2,2 °C -1,1 °C 83 % 1001,4 hPa 0,0 l/m² 0 min 0 min 0 W/m² 19,3 km/h (3 Bft) 96,67 %
03.02.2026 00:14 3,0 °C 2,2 °C -1,1 °C 83 % 1001,3 hPa 0,0 l/m² 0 min 0 min 0 W/m² 19,3 km/h (3 Bft) 97,92 %
03.02.2026 00:16 3,0 °C 2,2 °C -1,1 °C 83 % 1001,4 hPa 0,0 l/m² 0 min 0 min 0 W/m² 19,3 km/h (3 Bft) 93,62 %
03.02.2026 00:18 3,0 °C 2,2 °C -1,1 °C 83 % 1001,4 hPa 0,0 l/m² 0 min 0 min 0 W/m² 12,9 km/h (3 Bft) 95,92 %
03.02.2026 00:20 3,0 °C 2,2 °C -1,1 °C 83 % 1001,3 hPa 0,0 l/m² 0 min 0 min 0 W/m² 22,5 km/h (4 Bft) 95,83 %
03.02.2026 00:22 3,0 °C 2,2 °C -1,1 °C 83 % 1001,3 hPa 0,0 l/m² 0 min 0 min 0 W/m² 19,3 km/h (3 Bft) 93,48 %
03.02.2026 00:24 3,0 °C 2,2 °C -1,1 °C 83 % 1001,3 hPa 0,0 l/m² 0 min 0 min 0 W/m² 16,1 km/h (3 Bft) 91,49 %
03.02.2026 00:26 3,0 °C 2,2 °C -1,1 °C 83 % 1001,3 hPa 0,0 l/m² 0 min 0 min 0 W/m² 19,3 km/h (3 Bft) 93,62 %
03.02.2026 00:28 3,0 °C 2,2 °C -1,1 °C 83 % 1001,2 hPa 0,0 l/m² 0 min 0 min 0 W/m² 19,3 km/h (3 Bft) 91,49 %
03.02.2026 00:30 3,0 °C 2,2 °C -1,1 °C 83 % 1001,2 hPa 0,0 l/m² 0 min 0 min 0 W/m² 19,3 km/h (3 Bft) 95,74 %
03.02.2026 00:32 3,0 °C 2,8 °C -1,1 °C 83 % 1001,2 hPa 0,0 l/m² 0 min 0 min 0 W/m² 16,1 km/h (3 Bft) 93,48 %
03.02.2026 00:34 3,0 °C 2,2 °C -1,1 °C 83 % 1001,1 hPa 0,0 l/m² 0 min 0 min 0 W/m² 12,9 km/h (3 Bft) 93,62 %
03.02.2026 00:36 3,1 °C 2,2 °C -1,1 °C 83 % 1001,2 hPa 0,0 l/m² 0 min 0 min 0 W/m² 19,3 km/h (3 Bft) 94,29 %
03.02.2026 00:38 3,0 °C 2,2 °C -1,1 °C 83 % 1001,2 hPa 0,0 l/m² 0 min 0 min 0 W/m² 12,9 km/h (3 Bft) 91,49 %
03.02.2026 00:40 3,1 °C 2,2 °C -1,1 °C 83 % 1001,1 hPa 0,0 l/m² 0 min 0 min 0 W/m² 12,9 km/h (3 Bft) 92,59 %
03.02.2026 00:42 3,0 °C 2,2 °C -1,1 °C 83 % 1001,1 hPa 0,0 l/m² 0 min 0 min 0 W/m² 16,1 km/h (3 Bft) 93,62 %
03.02.2026 00:44 3,1 °C 2,2 °C -1,1 °C 83 % 1001,2 hPa 0,0 l/m² 0 min 0 min 0 W/m² 16,1 km/h (3 Bft) 93,75 %
03.02.2026 00:46 3,1 °C 2,2 °C -1,1 °C 83 % 1001,2 hPa 0,0 l/m² 0 min 0 min 0 W/m² 22,5 km/h (4 Bft) 95,74 %
03.02.2026 00:48 3,1 °C 2,2 °C -1,1 °C 83 % 1001,1 hPa 0,0 l/m² 0 min 0 min 0 W/m² 19,3 km/h (3 Bft) 93,75 %
03.02.2026 00:50 3,0 °C 2,2 °C -1,1 °C 83 % 1001,1 hPa 0,0 l/m² 0 min 0 min 0 W/m² 25,7 km/h (4 Bft) 95,74 %
03.02.2026 00:52 3,0 °C 2,8 °C -1,1 °C 83 % 1001,1 hPa 0,0 l/m² 0 min 0 min 0 W/m² 32,2 km/h (5 Bft) 95,83 %
03.02.2026 00:54 3,0 °C 2,8 °C -1,1 °C 83 % 1001,2 hPa 0,0 l/m² 0 min 0 min 0 W/m² 25,7 km/h (4 Bft) 97,92 %
03.02.2026 00:56 3,0 °C 2,2 °C -1,1 °C 83 % 1001,2 hPa 0,0 l/m² 0 min 0 min 0 W/m² 19,3 km/h (3 Bft) 97,83 %
03.02.2026 00:58 3,1 °C 2,2 °C -1,1 °C 83 % 1001,2 hPa 0,0 l/m² 0 min 0 min 0 W/m² 25,7 km/h (4 Bft) 95,74 %
03.02.2026 01:00 3,0 °C 2,2 °C -1,1 °C 83 % 1001,2 hPa 0,0 l/m² 0 min 0 min 0 W/m² 16,1 km/h (3 Bft) 97,87 %
03.02.2026 01:02 3,1 °C 2,2 °C -1,1 °C 83 % 1001,1 hPa 0,0 l/m² 0 min 0 min 0 W/m² 16,1 km/h (3 Bft) 100,00 %
03.02.2026 01:04 3,0 °C 2,2 °C -1,1 °C 83 % 1001,0 hPa 0,0 l/m² 0 min 0 min 0 W/m² 16,1 km/h (3 Bft) 100,00 %
03.02.2026 01:06 3,0 °C 2,2 °C -1,1 °C 83 % 1001,0 hPa 0,0 l/m² 0 min 0 min 0 W/m² 16,1 km/h (3 Bft) 100,00 %
03.02.2026 01:08 3,0 °C 2,2 °C -1,1 °C 83 % 1001,1 hPa 0,0 l/m² 0 min 0 min 0 W/m² 19,3 km/h (3 Bft) 100,00 %
03.02.2026 01:10 3,0 °C 2,2 °C -1,1 °C 83 % 1001,2 hPa 0,0 l/m² 0 min 0 min 0 W/m² 19,3 km/h (3 Bft) 100,00 %
03.02.2026 01:12 3,0 °C 2,2 °C -1,1 °C 83 % 1001,1 hPa 0,0 l/m² 0 min 0 min 0 W/m² 22,5 km/h (4 Bft) 100,00 %
03.02.2026 01:14 3,0 °C 2,2 °C -1,1 °C 83 % 1001,0 hPa 0,0 l/m² 0 min 0 min 0 W/m² 22,5 km/h (4 Bft) 100,00 %
03.02.2026 01:16 3,0 °C 2,2 °C -1,1 °C 83 % 1000,9 hPa 0,0 l/m² 0 min 0 min 0 W/m² 19,3 km/h (3 Bft) 97,87 %
03.02.2026 01:18 3,0 °C 2,2 °C -1,1 °C 83 % 1000,9 hPa 0,0 l/m² 0 min 0 min 0 W/m² 12,9 km/h (3 Bft) 100,00 %
03.02.2026 01:20 3,0 °C 2,2 °C -1,1 °C 83 % 1000,9 hPa 0,0 l/m² 0 min 0 min 0 W/m² 19,3 km/h (3 Bft) 100,00 %
03.02.2026 01:22 3,0 °C 2,2 °C -1,1 °C 83 % 1000,9 hPa 0,0 l/m² 0 min 0 min 0 W/m² 22,5 km/h (4 Bft) 97,83 %
03.02.2026 01:24 3,0 °C 2,2 °C -1,1 °C 84 % 1000,9 hPa 0,0 l/m² 0 min 0 min 0 W/m² 12,9 km/h (3 Bft) 100,00 %
03.02.2026 01:26 3,0 °C 2,2 °C -1,1 °C 84 % 1000,9 hPa 0,0 l/m² 0 min 0 min 0 W/m² 16,1 km/h (3 Bft) 100,00 %
03.02.2026 01:28 3,0 °C 2,2 °C -1,1 °C 84 % 1000,8 hPa 0,0 l/m² 0 min 0 min 0 W/m² 22,5 km/h (4 Bft) 100,00 %
03.02.2026 01:30 2,9 °C 2,2 °C -1,1 °C 84 % 1000,8 hPa 0,0 l/m² 0 min 0 min 0 W/m² 16,1 km/h (3 Bft) 100,00 %
03.02.2026 01:32 2,9 °C 2,2 °C -1,1 °C 84 % 1000,8 hPa 0,0 l/m² 0 min 0 min 0 W/m² 22,5 km/h (4 Bft) 97,87 %
03.02.2026 01:34 2,9 °C 2,2 °C -1,1 °C 84 % 1000,7 hPa 0,0 l/m² 0 min 0 min 0 W/m² 16,1 km/h (3 Bft) 100,00 %
03.02.2026 01:36 2,9 °C 2,2 °C -1,1 °C 84 % 1000,7 hPa 0,0 l/m² 0 min 0 min 0 W/m² 16,1 km/h (3 Bft) 100,00 %
03.02.2026 01:38 2,9 °C 2,2 °C -1,1 °C 84 % 1000,7 hPa 0,0 l/m² 0 min 0 min 0 W/m² 16,1 km/h (3 Bft) 100,00 %
03.02.2026 01:40 2,9 °C 2,2 °C -1,1 °C 84 % 1000,7 hPa 0,0 l/m² 0 min 0 min 0 W/m² 22,5 km/h (4 Bft) 100,00 %
03.02.2026 01:42 2,9 °C 2,2 °C -1,1 °C 84 % 1000,7 hPa 0,0 l/m² 0 min 0 min 0 W/m² 16,1 km/h (3 Bft) 100,00 %
03.02.2026 01:44 2,9 °C 2,2 °C -1,1 °C 84 % 1000,6 hPa 0,0 l/m² 0 min 0 min 0 W/m² 22,5 km/h (4 Bft) 97,87 %
03.02.2026 01:46 2,9 °C 2,2 °C -1,1 °C 84 % 1000,6 hPa 0,0 l/m² 0 min 0 min 0 W/m² 16,1 km/h (3 Bft) 100,00 %
03.02.2026 01:48 2,9 °C 2,2 °C -1,1 °C 84 % 1000,7 hPa 0,0 l/m² 0 min 0 min 0 W/m² 19,3 km/h (3 Bft) 100,00 %
03.02.2026 01:50 2,9 °C 2,2 °C -1,1 °C 84 % 1000,7 hPa 0,0 l/m² 0 min 0 min 0 W/m² 19,3 km/h (3 Bft) 100,00 %
03.02.2026 01:52 2,9 °C 2,2 °C -1,1 °C 84 % 1000,6 hPa 0,0 l/m² 0 min 0 min 0 W/m² 25,7 km/h (4 Bft) 100,00 %
03.02.2026 01:54 2,9 °C 2,2 °C -1,1 °C 84 % 1000,6 hPa 0,0 l/m² 0 min 0 min 0 W/m² 19,3 km/h (3 Bft) 100,00 %
03.02.2026 01:56 2,9 °C 2,2 °C -1,1 °C 84 % 1000,6 hPa 0,0 l/m² 0 min 0 min 0 W/m² 16,1 km/h (3 Bft) 100,00 %
03.02.2026 01:58 2,9 °C 2,2 °C -1,1 °C 84 % 1000,6 hPa 0,0 l/m² 0 min 0 min 0 W/m² 19,3 km/h (3 Bft) 97,92 %
03.02.2026 02:00 2,9 °C 2,2 °C -1,1 °C 84 % 1000,5 hPa 0,0 l/m² 0 min 0 min 0 W/m² 22,5 km/h (4 Bft) 97,96 %
03.02.2026 02:02 2,9 °C 2,2 °C -1,1 °C 84 % 1000,5 hPa 0,0 l/m² 0 min 0 min 0 W/m² 19,3 km/h (3 Bft) 97,92 %
03.02.2026 02:04 2,9 °C 2,2 °C -1,1 °C 84 % 1000,5 hPa 0,0 l/m² 0 min 0 min 0 W/m² 22,5 km/h (4 Bft) 95,74 %
03.02.2026 02:06 2,9 °C 2,2 °C -1,1 °C 84 % 1000,5 hPa 0,0 l/m² 0 min 0 min 0 W/m² 16,1 km/h (3 Bft) 100,00 %
03.02.2026 02:08 2,9 °C 2,2 °C -1,1 °C 84 % 1000,4 hPa 0,0 l/m² 0 min 0 min 0 W/m² 19,3 km/h (3 Bft) 97,87 %
03.02.2026 02:10 2,9 °C 2,2 °C -1,1 °C 84 % 1000,4 hPa 0,0 l/m² 0 min 0 min 0 W/m² 19,3 km/h (3 Bft) 100,00 %
03.02.2026 02:14 2,9 °C 2,2 °C -1,1 °C 84 % 1000,3 hPa 0,0 l/m² 0 min 0 min 0 W/m² 22,5 km/h (4 Bft) 100,00 %
03.02.2026 02:16 2,9 °C 2,2 °C -1,1 °C 84 % 1000,3 hPa 0,0 l/m² 0 min 0 min 0 W/m² 19,3 km/h (3 Bft) 95,74 %
03.02.2026 02:18 2,9 °C 2,2 °C -1,1 °C 84 % 1000,2 hPa 0,0 l/m² 0 min 0 min 0 W/m² 19,3 km/h (3 Bft) 95,74 %
03.02.2026 02:20 2,9 °C 2,2 °C -1,1 °C 84 % 1000,3 hPa 0,0 l/m² 0 min 0 min 0 W/m² 19,3 km/h (3 Bft) 97,83 %
03.02.2026 02:22 2,9 °C 2,2 °C -1,1 °C 84 % 1000,2 hPa 0,0 l/m² 0 min 0 min 0 W/m² 16,1 km/h (3 Bft) 97,37 %
03.02.2026 02:24 2,9 °C 2,2 °C -1,1 °C 84 % 1000,2 hPa 0,0 l/m² 0 min 0 min 0 W/m² 19,3 km/h (3 Bft) 100,00 %
03.02.2026 02:26 3,0 °C 2,2 °C -1,1 °C 84 % 1000,2 hPa 0,0 l/m² 0 min 0 min 0 W/m² 16,1 km/h (3 Bft) 100,00 %
03.02.2026 02:28 3,0 °C 2,2 °C -1,1 °C 84 % 1000,2 hPa 0,0 l/m² 0 min 0 min 0 W/m² 12,9 km/h (3 Bft) 97,30 %
03.02.2026 02:30 3,0 °C 2,2 °C -1,1 °C 84 % 1000,2 hPa 0,0 l/m² 0 min 0 min 0 W/m² 16,1 km/h (3 Bft) 100,00 %
03.02.2026 02:32 3,0 °C 2,2 °C -1,1 °C 84 % 1000,2 hPa 0,0 l/m² 0 min 0 min 0 W/m² 12,9 km/h (3 Bft) 93,75 %
03.02.2026 02:34 3,0 °C 2,2 °C -1,1 °C 84 % 1000,2 hPa 0,0 l/m² 0 min 0 min 0 W/m² 9,7 km/h (2 Bft) 97,87 %
03.02.2026 02:36 3,0 °C 2,2 °C -1,1 °C 85 % 1000,2 hPa 0,0 l/m² 0 min 0 min 0 W/m² 16,1 km/h (3 Bft) 97,87 %
03.02.2026 02:38 3,0 °C 2,2 °C -1,1 °C 85 % 1000,1 hPa 0,0 l/m² 0 min 0 min 0 W/m² 19,3 km/h (3 Bft) 100,00 %
03.02.2026 02:40 3,0 °C 2,2 °C -1,1 °C 85 % 1000,1 hPa 0,0 l/m² 0 min 0 min 0 W/m² 16,1 km/h (3 Bft) 93,62 %
03.02.2026 02:42 3,1 °C 2,2 °C -1,1 °C 85 % 1000,1 hPa 0,0 l/m² 0 min 0 min 0 W/m² 16,1 km/h (3 Bft) 95,74 %
03.02.2026 02:44 3,1 °C 2,2 °C -1,1 °C 84 % 1000,0 hPa 0,0 l/m² 0 min 0 min 0 W/m² 19,3 km/h (3 Bft) 95,65 %
03.02.2026 02:46 3,0 °C 2,2 °C -1,1 °C 85 % 1000,0 hPa 0,0 l/m² 0 min 0 min 0 W/m² 16,1 km/h (3 Bft) 97,87 %
03.02.2026 02:48 3,1 °C 2,2 °C -1,1 °C 84 % 1000,1 hPa 0,0 l/m² 0 min 0 min 0 W/m² 12,9 km/h (3 Bft) 100,00 %
03.02.2026 02:50 3,1 °C 2,2 °C -1,1 °C 84 % 1000,1 hPa 0,0 l/m² 0 min 0 min 0 W/m² 19,3 km/h (3 Bft) 100,00 %
03.02.2026 02:52 3,0 °C 2,2 °C -1,1 °C 84 % 1000,0 hPa 0,0 l/m² 0 min 0 min 0 W/m² 12,9 km/h (3 Bft) 97,30 %
03.02.2026 02:54 3,1 °C 2,2 °C -1,1 °C 84 % 1000,0 hPa 0,0 l/m² 0 min 0 min 0 W/m² 16,1 km/h (3 Bft) 97,83 %
03.02.2026 02:56 3,0 °C 2,2 °C -1,1 °C 84 % 1000,0 hPa 0,0 l/m² 0 min 0 min 0 W/m² 12,9 km/h (3 Bft) 95,83 %
03.02.2026 02:58 3,0 °C 2,2 °C -1,1 °C 84 % 1000,0 hPa 0,0 l/m² 0 min 0 min 0 W/m² 22,5 km/h (4 Bft) 95,83 %
03.02.2026 03:00 3,0 °C 2,2 °C -1,1 °C 85 % 1000,0 hPa 0,0 l/m² 0 min 0 min 0 W/m² 16,1 km/h (3 Bft) 93,62 %
03.02.2026 03:02 3,0 °C 2,2 °C -1,1 °C 85 % 1000,0 hPa 0,0 l/m² 0 min 0 min 0 W/m² 19,3 km/h (3 Bft) 93,62 %
03.02.2026 03:04 3,0 °C 2,2 °C -1,1 °C 85 % 1000,0 hPa 0,0 l/m² 0 min 0 min 0 W/m² 22,5 km/h (4 Bft) 95,83 %
03.02.2026 03:06 3,0 °C 2,2 °C -1,1 °C 85 % 999,9 hPa 0,0 l/m² 0 min 0 min 0 W/m² 16,1 km/h (3 Bft) 95,65 %
03.02.2026 03:08 3,0 °C 2,2 °C -1,1 °C 85 % 999,9 hPa 0,0 l/m² 0 min 0 min 0 W/m² 19,3 km/h (3 Bft) 95,56 %
03.02.2026 03:10 2,9 °C 2,2 °C -1,1 °C 85 % 999,9 hPa 0,0 l/m² 0 min 0 min 0 W/m² 19,3 km/h (3 Bft) 93,75 %
03.02.2026 03:12 3,0 °C 2,2 °C -1,1 °C 84 % 999,8 hPa 0,0 l/m² 0 min 0 min 0 W/m² 16,1 km/h (3 Bft) 93,75 %
03.02.2026 03:14 2,9 °C 2,2 °C -1,1 °C 84 % 999,8 hPa 0,0 l/m² 0 min 0 min 0 W/m² 16,1 km/h (3 Bft) 93,62 %
03.02.2026 03:16 2,9 °C 2,2 °C -1,1 °C 84 % 999,8 hPa 0,0 l/m² 0 min 0 min 0 W/m² 16,1 km/h (3 Bft) 95,74 %
03.02.2026 03:18 2,9 °C 2,2 °C -1,1 °C 85 % 999,8 hPa 0,0 l/m² 0 min 0 min 0 W/m² 16,1 km/h (3 Bft) 95,65 %
03.02.2026 03:20 2,9 °C 2,2 °C -1,1 °C 85 % 999,8 hPa 0,0 l/m² 0 min 0 min 0 W/m² 22,5 km/h (4 Bft) 93,62 %
03.02.2026 03:22 2,9 °C 2,2 °C -1,1 °C 85 % 999,8 hPa 0,0 l/m² 0 min 0 min 0 W/m² 19,3 km/h (3 Bft) 93,62 %
03.02.2026 03:24 3,0 °C 2,2 °C -1,1 °C 85 % 999,8 hPa 0,0 l/m² 0 min 0 min 0 W/m² 22,5 km/h (4 Bft) 94,44 %
03.02.2026 03:26 3,0 °C 2,2 °C -1,1 °C 85 % 999,8 hPa 0,0 l/m² 0 min 0 min 0 W/m² 19,3 km/h (3 Bft) 95,74 %
03.02.2026 03:28 2,9 °C 2,2 °C -1,1 °C 85 % 999,8 hPa 0,0 l/m² 0 min 0 min 0 W/m² 19,3 km/h (3 Bft) 94,59 %
03.02.2026 03:30 2,9 °C 2,2 °C -1,1 °C 85 % 999,7 hPa 0,0 l/m² 0 min 0 min 0 W/m² 16,1 km/h (3 Bft) 93,75 %
03.02.2026 03:32 2,9 °C 2,2 °C -1,1 °C 85 % 999,7 hPa 0,0 l/m² 0 min 0 min 0 W/m² 22,5 km/h (4 Bft) 95,83 %
03.02.2026 03:34 2,9 °C 2,2 °C -1,1 °C 85 % 999,8 hPa 0,0 l/m² 0 min 0 min 0 W/m² 25,7 km/h (4 Bft) 100,00 %
03.02.2026 03:36 2,9 °C 2,2 °C -1,1 °C 85 % 999,8 hPa 0,0 l/m² 0 min 0 min 0 W/m² 16,1 km/h (3 Bft) 95,74 %
03.02.2026 03:38 2,9 °C 2,2 °C -1,1 °C 85 % 999,7 hPa 0,0 l/m² 0 min 0 min 0 W/m² 22,5 km/h (4 Bft) 97,87 %
03.02.2026 03:40 2,9 °C 2,2 °C -1,1 °C 85 % 999,6 hPa 0,0 l/m² 0 min 0 min 0 W/m² 25,7 km/h (4 Bft) 97,87 %
03.02.2026 03:42 2,9 °C 2,2 °C -1,1 °C 85 % 999,6 hPa 0,0 l/m² 0 min 0 min 0 W/m² 16,1 km/h (3 Bft) 97,83 %
03.02.2026 03:44 2,9 °C 2,2 °C -1,1 °C 85 % 999,6 hPa 0,0 l/m² 0 min 0 min 0 W/m² 16,1 km/h (3 Bft) 98,15 %
03.02.2026 03:46 2,9 °C 2,2 °C -1,1 °C 85 % 999,6 hPa 0,0 l/m² 0 min 0 min 0 W/m² 16,1 km/h (3 Bft) 100,00 %
03.02.2026 03:48 2,9 °C 2,2 °C -1,1 °C 85 % 999,6 hPa 0,0 l/m² 0 min 0 min 0 W/m² 16,1 km/h (3 Bft) 97,30 %
03.02.2026 03:50 2,9 °C 2,2 °C -1,1 °C 85 % 999,5 hPa 0,0 l/m² 0 min 0 min 0 W/m² 12,9 km/h (3 Bft) 100,00 %
03.02.2026 03:52 2,9 °C 2,2 °C -1,1 °C 85 % 999,4 hPa 0,0 l/m² 0 min 0 min 0 W/m² 19,3 km/h (3 Bft) 97,92 %
03.02.2026 03:54 2,9 °C 2,2 °C -1,1 °C 85 % 999,4 hPa 0,0 l/m² 0 min 0 min 0 W/m² 16,1 km/h (3 Bft) 100,00 %
03.02.2026 03:56 2,8 °C 2,2 °C -1,1 °C 85 % 999,4 hPa 0,0 l/m² 0 min 0 min 0 W/m² 22,5 km/h (4 Bft) 97,87 %
03.02.2026 03:58 2,8 °C 2,2 °C -1,1 °C 85 % 999,3 hPa 0,0 l/m² 0 min 0 min 0 W/m² 22,5 km/h (4 Bft) 100,00 %
03.02.2026 04:00 2,8 °C 2,2 °C -1,1 °C 85 % 999,3 hPa 0,0 l/m² 0 min 0 min 0 W/m² 16,1 km/h (3 Bft) 97,87 %
03.02.2026 04:02 2,8 °C 2,2 °C -1,1 °C 85 % 999,3 hPa 0,0 l/m² 0 min 0 min 0 W/m² 12,9 km/h (3 Bft) 93,62 %
03.02.2026 04:04 2,8 °C 2,2 °C -1,1 °C 85 % 999,4 hPa 0,0 l/m² 0 min 0 min 0 W/m² 12,9 km/h (3 Bft) 93,75 %
03.02.2026 04:06 2,8 °C 2,2 °C -1,7 °C 85 % 999,3 hPa 0,0 l/m² 0 min 0 min 0 W/m² 12,9 km/h (3 Bft) 94,34 %
03.02.2026 04:08 2,8 °C 2,2 °C -1,7 °C 85 % 999,2 hPa 0,0 l/m² 0 min 0 min 0 W/m² 12,9 km/h (3 Bft) 100,00 %
03.02.2026 04:10 2,8 °C 2,2 °C -1,7 °C 85 % 999,2 hPa 0,0 l/m² 0 min 0 min 0 W/m² 9,7 km/h (2 Bft) 95,74 %
03.02.2026 04:12 2,8 °C 2,2 °C -1,7 °C 85 % 999,2 hPa 0,0 l/m² 0 min 0 min 0 W/m² 9,7 km/h (2 Bft) 93,62 %
03.02.2026 04:14 2,7 °C 2,2 °C -1,7 °C 85 % 999,1 hPa 0,0 l/m² 0 min 0 min 0 W/m² 12,9 km/h (3 Bft) 98,11 %
03.02.2026 04:16 2,7 °C 2,2 °C -1,7 °C 85 % 999,1 hPa 0,0 l/m² 0 min 0 min 0 W/m² 16,1 km/h (3 Bft) 97,22 %
03.02.2026 04:18 2,7 °C 2,2 °C -1,7 °C 85 % 999,1 hPa 0,0 l/m² 0 min 0 min 0 W/m² 16,1 km/h (3 Bft) 93,62 %
03.02.2026 04:20 2,7 °C 2,2 °C -1,7 °C 85 % 999,1 hPa 0,0 l/m² 0 min 0 min 0 W/m² 16,1 km/h (3 Bft) 93,75 %
03.02.2026 04:22 2,7 °C 2,2 °C -1,7 °C 85 % 999,1 hPa 0,0 l/m² 0 min 0 min 0 W/m² 12,9 km/h (3 Bft) 95,83 %
03.02.2026 04:24 2,7 °C 2,2 °C -1,7 °C 85 % 999,1 hPa 0,0 l/m² 0 min 0 min 0 W/m² 9,7 km/h (2 Bft) 95,92 %
03.02.2026 04:26 2,7 °C 2,2 °C -1,7 °C 85 % 999,1 hPa 0,0 l/m² 0 min 0 min 0 W/m² 22,5 km/h (4 Bft) 93,48 %
03.02.2026 04:28 2,6 °C 2,2 °C -1,7 °C 85 % 999,1 hPa 0,0 l/m² 0 min 0 min 0 W/m² 9,7 km/h (2 Bft) 91,49 %
03.02.2026 04:30 2,6 °C 2,2 °C -1,7 °C 85 % 999,1 hPa 0,0 l/m² 0 min 0 min 0 W/m² 12,9 km/h (3 Bft) 97,87 %
03.02.2026 04:32 2,6 °C 2,2 °C -1,7 °C 85 % 999,1 hPa 0,0 l/m² 0 min 0 min 0 W/m² 22,5 km/h (4 Bft) 95,74 %
03.02.2026 04:34 2,6 °C 2,2 °C -1,7 °C 85 % 999,0 hPa 0,0 l/m² 0 min 0 min 0 W/m² 9,7 km/h (2 Bft) 100,00 %
03.02.2026 04:36 2,6 °C 2,2 °C -1,7 °C 85 % 999,0 hPa 0,0 l/m² 0 min 0 min 0 W/m² 9,7 km/h (2 Bft) 54,55 %
03.02.2026 04:38 2,6 °C 2,2 °C -1,7 °C 85 % 999,0 hPa 0,0 l/m² 0 min 0 min 0 W/m² 12,9 km/h (3 Bft) 100,00 %
03.02.2026 04:40 2,6 °C 2,2 °C -1,7 °C 85 % 999,0 hPa 0,0 l/m² 0 min 0 min 0 W/m² 12,9 km/h (3 Bft) 97,22 %
03.02.2026 04:42 2,6 °C 2,2 °C -1,7 °C 86 % 999,0 hPa 0,0 l/m² 0 min 0 min 0 W/m² 12,9 km/h (3 Bft) 95,83 %
03.02.2026 04:44 2,6 °C 2,2 °C -1,7 °C 86 % 999,0 hPa 0,0 l/m² 0 min 0 min 0 W/m² 12,9 km/h (3 Bft) 100,00 %
03.02.2026 04:46 2,6 °C 2,2 °C -1,7 °C 85 % 999,0 hPa 0,0 l/m² 0 min 0 min 0 W/m² 12,9 km/h (3 Bft) 100,00 %
03.02.2026 04:48 2,5 °C 1,7 °C -1,7 °C 85 % 998,9 hPa 0,0 l/m² 0 min 0 min 0 W/m² 12,9 km/h (3 Bft) 97,87 %
03.02.2026 04:50 2,5 °C 1,7 °C -1,7 °C 85 % 998,8 hPa 0,0 l/m² 0 min 0 min 0 W/m² 12,9 km/h (3 Bft) 93,62 %
03.02.2026 04:52 2,5 °C 1,7 °C -1,7 °C 86 % 998,9 hPa 0,0 l/m² 0 min 0 min 0 W/m² 9,7 km/h (2 Bft) 100,00 %
03.02.2026 04:54 2,4 °C 1,7 °C -1,7 °C 86 % 998,9 hPa 0,0 l/m² 0 min 0 min 0 W/m² 9,7 km/h (2 Bft) 100,00 %
03.02.2026 04:56 2,4 °C 1,7 °C -1,7 °C 86 % 998,8 hPa 0,0 l/m² 0 min 0 min 0 W/m² 12,9 km/h (3 Bft) 100,00 %
03.02.2026 04:58 2,4 °C 1,7 °C -1,7 °C 86 % 998,8 hPa 0,0 l/m² 0 min 0 min 0 W/m² 9,7 km/h (2 Bft) 100,00 %
03.02.2026 05:00 2,3 °C 1,7 °C -1,7 °C 86 % 998,8 hPa 0,0 l/m² 0 min 0 min 0 W/m² 16,1 km/h (3 Bft) 100,00 %
03.02.2026 05:02 2,3 °C 1,7 °C -1,7 °C 86 % 998,8 hPa 0,0 l/m² 0 min 0 min 0 W/m² 16,1 km/h (3 Bft) 97,87 %
03.02.2026 05:04 2,3 °C 1,7 °C -1,7 °C 86 % 998,8 hPa 0,0 l/m² 0 min 0 min 0 W/m² 16,1 km/h (3 Bft) 100,00 %
03.02.2026 05:06 2,2 °C 1,7 °C -1,7 °C 86 % 998,7 hPa 0,0 l/m² 0 min 0 min 0 W/m² 12,9 km/h (3 Bft) 100,00 %
03.02.2026 05:08 2,2 °C 1,7 °C -1,7 °C 86 % 998,7 hPa 0,0 l/m² 0 min 0 min 0 W/m² 12,9 km/h (3 Bft) 100,00 %
03.02.2026 05:10 2,2 °C 1,7 °C -1,7 °C 86 % 998,7 hPa 0,0 l/m² 0 min 0 min 0 W/m² 9,7 km/h (2 Bft) 97,92 %
03.02.2026 05:12 2,2 °C 1,7 °C -1,7 °C 86 % 998,6 hPa 0,0 l/m² 0 min 0 min 0 W/m² 16,1 km/h (3 Bft) 100,00 %
03.02.2026 05:14 2,2 °C 1,7 °C -1,7 °C 86 % 998,6 hPa 0,0 l/m² 0 min 0 min 0 W/m² 22,5 km/h (4 Bft) 100,00 %
03.02.2026 05:16 2,2 °C 1,7 °C -2,2 °C 86 % 998,6 hPa 0,0 l/m² 0 min 0 min 0 W/m² 16,1 km/h (3 Bft) 100,00 %
03.02.2026 05:18 2,2 °C 1,7 °C -2,2 °C 86 % 998,5 hPa 0,0 l/m² 0 min 0 min 0 W/m² 9,7 km/h (2 Bft) 100,00 %
03.02.2026 05:20 2,1 °C 1,7 °C -2,2 °C 86 % 998,5 hPa 0,0 l/m² 0 min 0 min 0 W/m² 12,9 km/h (3 Bft) 95,74 %
03.02.2026 05:22 2,1 °C 1,1 °C -2,2 °C 86 % 998,5 hPa 0,0 l/m² 0 min 0 min 0 W/m² 16,1 km/h (3 Bft) 95,83 %
03.02.2026 05:24 2,1 °C 1,1 °C -2,2 °C 86 % 998,5 hPa 0,0 l/m² 0 min 0 min 0 W/m² 12,9 km/h (3 Bft) 95,83 %
03.02.2026 05:26 2,1 °C 1,1 °C -2,2 °C 86 % 998,4 hPa 0,0 l/m² 0 min 0 min 0 W/m² 16,1 km/h (3 Bft) 97,92 %
03.02.2026 05:28 2,1 °C 1,1 °C -2,2 °C 86 % 998,4 hPa 0,0 l/m² 0 min 0 min 0 W/m² 12,9 km/h (3 Bft) 97,92 %
03.02.2026 05:30 2,0 °C 1,1 °C -2,2 °C 86 % 998,4 hPa 0,0 l/m² 0 min 0 min 0 W/m² 12,9 km/h (3 Bft) 97,87 %
03.02.2026 05:32 1,9 °C 1,1 °C -2,2 °C 86 % 998,4 hPa 0,0 l/m² 0 min 0 min 0 W/m² 9,7 km/h (2 Bft) 97,87 %
03.02.2026 05:34 1,9 °C 1,1 °C -2,2 °C 86 % 998,4 hPa 0,0 l/m² 0 min 0 min 0 W/m² 12,9 km/h (3 Bft) 97,87 %
03.02.2026 05:36 1,8 °C 0,6 °C -2,8 °C 86 % 998,5 hPa 0,0 l/m² 0 min 0 min 0 W/m² 9,7 km/h (2 Bft) 97,87 %
03.02.2026 05:38 1,7 °C 0,6 °C -2,8 °C 86 % 998,4 hPa 0,0 l/m² 0 min 0 min 0 W/m² 9,7 km/h (2 Bft) 97,83 %
03.02.2026 05:40 1,6 °C 0,6 °C -3,3 °C 86 % 998,5 hPa 0,0 l/m² 0 min 0 min 0 W/m² 9,7 km/h (2 Bft) 95,74 %
03.02.2026 05:42 1,5 °C 0,0 °C -3,3 °C 86 % 998,6 hPa 0,0 l/m² 0 min 0 min 0 W/m² 9,7 km/h (2 Bft) 97,62 %
03.02.2026 05:44 1,3 °C 0,0 °C -3,3 °C 86 % 998,5 hPa 0,0 l/m² 0 min 0 min 0 W/m² 12,9 km/h (3 Bft) 95,83 %
03.02.2026 05:46 1,2 °C 0,0 °C -3,3 °C 86 % 998,5 hPa 0,0 l/m² 0 min 0 min 0 W/m² 9,7 km/h (2 Bft) 95,74 %
03.02.2026 05:48 1,2 °C 0,0 °C -3,3 °C 86 % 998,5 hPa 0,0 l/m² 0 min 0 min 0 W/m² 9,7 km/h (2 Bft) 97,92 %
03.02.2026 05:50 1,1 °C 0,0 °C -3,3 °C 86 % 998,5 hPa 0,0 l/m² 0 min 0 min 0 W/m² 16,1 km/h (3 Bft) 97,87 %
03.02.2026 05:52 1,0 °C 0,0 °C -3,3 °C 86 % 998,4 hPa 0,0 l/m² 0 min 0 min 0 W/m² 9,7 km/h (2 Bft) 95,92 %
03.02.2026 05:54 0,9 °C 0,0 °C -3,3 °C 86 % 998,3 hPa 0,0 l/m² 0 min 0 min 0 W/m² 16,1 km/h (3 Bft) 95,74 %
03.02.2026 05:56 0,8 °C 0,0 °C -3,3 °C 87 % 998,4 hPa 0,0 l/m² 0 min 0 min 0 W/m² 12,9 km/h (3 Bft) 93,62 %
03.02.2026 05:58 0,7 °C 0,0 °C -3,3 °C 87 % 998,3 hPa 0,0 l/m² 0 min 0 min 0 W/m² 9,7 km/h (2 Bft) 95,74 %
03.02.2026 06:00 0,7 °C 0,0 °C -3,3 °C 87 % 998,2 hPa 0,0 l/m² 0 min 0 min 0 W/m² 9,7 km/h (2 Bft) 95,74 %
03.02.2026 06:02 0,6 °C 0,0 °C -3,9 °C 87 % 998,3 hPa 0,0 l/m² 0 min 0 min 0 W/m² 6,4 km/h (2 Bft) 91,30 %
03.02.2026 06:04 0,6 °C -0,6 °C -3,9 °C 87 % 998,2 hPa 0,0 l/m² 0 min 0 min 0 W/m² 9,7 km/h (2 Bft) 95,35 %
03.02.2026 06:07 0,6 °C -0,6 °C -3,9 °C 87 % 998,2 hPa 0,0 l/m² 0 min 0 min 0 W/m² 12,9 km/h (3 Bft) 94,37 %
03.02.2026 06:08 0,5 °C -0,6 °C -3,9 °C 87 % 998,2 hPa 0,0 l/m² 0 min 0 min 0 W/m² 9,7 km/h (2 Bft) 100,00 %
03.02.2026 06:12 0,3 °C -0,6 °C -3,9 °C 87 % 998,3 hPa 0,0 l/m² 0 min 0 min 0 W/m² 6,4 km/h (2 Bft) 92,73 %
03.02.2026 06:14 0,3 °C -0,6 °C -3,9 °C 87 % 998,3 hPa 0,0 l/m² 0 min 0 min 0 W/m² 9,7 km/h (2 Bft) 80,85 %
03.02.2026 06:16 0,2 °C -0,6 °C -3,9 °C 88 % 998,3 hPa 0,0 l/m² 0 min 0 min 0 W/m² 12,9 km/h (3 Bft) 54,84 %
03.02.2026 06:18 0,2 °C -0,6 °C -3,9 °C 88 % 998,3 hPa 0,0 l/m² 0 min 0 min 0 W/m² 9,7 km/h (2 Bft) 95,83 %
03.02.2026 06:20 0,1 °C -0,6 °C -3,9 °C 88 % 998,3 hPa 0,0 l/m² 0 min 0 min 0 W/m² 9,7 km/h (2 Bft) 95,83 %
03.02.2026 06:22 0,1 °C -0,6 °C -3,9 °C 88 % 998,2 hPa 0,0 l/m² 0 min 0 min 0 W/m² 9,7 km/h (2 Bft) 95,74 %
03.02.2026 06:24 0,1 °C -0,6 °C -4,4 °C 88 % 998,2 hPa 0,0 l/m² 0 min 0 min 0 W/m² 9,7 km/h (2 Bft) 97,83 %
03.02.2026 06:26 0,0 °C -1,1 °C -4,4 °C 88 % 998,2 hPa 0,0 l/m² 0 min 0 min 0 W/m² 6,4 km/h (2 Bft) 97,87 %
03.02.2026 06:28 0,0 °C -1,1 °C -4,4 °C 88 % 998,2 hPa 0,0 l/m² 0 min 0 min 0 W/m² 6,4 km/h (2 Bft) 97,14 %
03.02.2026 06:30 -0,1 °C -1,1 °C -4,4 °C 88 % 998,1 hPa 0,0 l/m² 0 min 0 min 0 W/m² 9,7 km/h (2 Bft) 94,44 %
03.02.2026 06:32 -0,1 °C -1,1 °C -4,4 °C 88 % 998,1 hPa 0,0 l/m² 0 min 0 min 0 W/m² 9,7 km/h (2 Bft) 97,92 %
03.02.2026 06:34 -0,2 °C -1,1 °C -4,4 °C 88 % 998,1 hPa 0,0 l/m² 0 min 0 min 0 W/m² 9,7 km/h (2 Bft) 97,96 %
03.02.2026 06:36 -0,2 °C -1,1 °C -4,4 °C 88 % 998,1 hPa 0,0 l/m² 0 min 0 min 0 W/m² 12,9 km/h (3 Bft) 97,92 %
03.02.2026 06:38 -0,3 °C -1,1 °C -4,4 °C 88 % 998,0 hPa 0,0 l/m² 0 min 0 min 0 W/m² 9,7 km/h (2 Bft) 97,87 %
03.02.2026 06:40 -0,3 °C -1,1 °C -4,4 °C 89 % 998,0 hPa 0,0 l/m² 0 min 0 min 0 W/m² 12,9 km/h (3 Bft) 97,87 %
03.02.2026 06:42 -0,3 °C -1,1 °C -4,4 °C 89 % 998,0 hPa 0,0 l/m² 0 min 0 min 0 W/m² 6,4 km/h (2 Bft) 97,87 %
03.02.2026 06:44 -0,4 °C -1,1 °C -4,4 °C 89 % 998,0 hPa 0,0 l/m² 0 min 0 min 0 W/m² 9,7 km/h (2 Bft) 95,12 %
03.02.2026 06:46 -0,4 °C -1,7 °C -4,4 °C 89 % 997,9 hPa 0,0 l/m² 0 min 0 min 0 W/m² 6,4 km/h (2 Bft) 97,92 %
03.02.2026 06:48 -0,4 °C -1,7 °C -4,4 °C 89 % 997,9 hPa 0,0 l/m² 0 min 0 min 0 W/m² 6,4 km/h (2 Bft) 96,00 %
03.02.2026 06:50 -0,4 °C -1,7 °C -4,4 °C 89 % 998,0 hPa 0,0 l/m² 0 min 0 min 0 W/m² 6,4 km/h (2 Bft) 97,87 %
03.02.2026 06:52 -0,4 °C -1,7 °C -4,4 °C 89 % 998,0 hPa 0,0 l/m² 0 min 0 min 0 W/m² 9,7 km/h (2 Bft) 97,92 %
03.02.2026 06:54 -0,5 °C -1,7 °C -4,4 °C 89 % 998,0 hPa 0,0 l/m² 0 min 0 min 0 W/m² 9,7 km/h (2 Bft) 95,74 %
03.02.2026 06:56 -0,6 °C -1,7 °C -5,0 °C 89 % 998,0 hPa 0,0 l/m² 0 min 0 min 0 W/m² 9,7 km/h (2 Bft) 61,70 %
03.02.2026 06:58 -0,6 °C -1,7 °C -4,4 °C 89 % 997,9 hPa 0,0 l/m² 0 min 0 min 0 W/m² 6,4 km/h (2 Bft) 69,23 %
03.02.2026 07:00 -0,6 °C -1,7 °C -4,4 °C 89 % 998,0 hPa 0,0 l/m² 0 min 0 min 0 W/m² 6,4 km/h (2 Bft) 100,00 %
03.02.2026 07:02 -0,6 °C -1,1 °C -4,4 °C 89 % 998,0 hPa 0,0 l/m² 0 min 0 min 0 W/m² 6,4 km/h (2 Bft) 97,67 %
03.02.2026 07:04 -0,6 °C -1,1 °C -4,4 °C 89 % 998,0 hPa 0,0 l/m² 0 min 0 min 0 W/m² 3,2 km/h (1 Bft) 97,92 %
03.02.2026 07:06 -0,6 °C -1,1 °C -4,4 °C 90 % 997,9 hPa 0,0 l/m² 0 min 0 min 0 W/m² 6,4 km/h (2 Bft) 100,00 %
03.02.2026 07:08 -0,6 °C -1,1 °C -4,4 °C 90 % 997,9 hPa 0,0 l/m² 0 min 0 min 0 W/m² 6,4 km/h (2 Bft) 96,08 %
03.02.2026 07:10 -0,6 °C -1,1 °C -4,4 °C 90 % 998,0 hPa 0,0 l/m² 0 min 0 min 0 W/m² 3,2 km/h (1 Bft) 100,00 %
03.02.2026 07:12 -0,6 °C -1,1 °C -4,4 °C 90 % 997,9 hPa 0,0 l/m² 0 min 0 min 0 W/m² 9,7 km/h (2 Bft) 100,00 %
03.02.2026 07:14 -0,6 °C -1,1 °C -4,4 °C 90 % 997,9 hPa 0,0 l/m² 0 min 0 min 0 W/m² 6,4 km/h (2 Bft) 97,83 %
03.02.2026 07:16 -0,6 °C -1,1 °C -4,4 °C 90 % 997,9 hPa 0,0 l/m² 0 min 0 min 0 W/m² 6,4 km/h (2 Bft) 100,00 %
03.02.2026 07:18 -0,6 °C -1,1 °C -4,4 °C 90 % 997,9 hPa 0,0 l/m² 0 min 0 min 0 W/m² 9,7 km/h (2 Bft) 97,96 %
03.02.2026 07:20 -0,6 °C -1,1 °C -4,4 °C 90 % 998,0 hPa 0,0 l/m² 0 min 0 min 0 W/m² 9,7 km/h (2 Bft) 97,92 %
03.02.2026 07:22 -0,6 °C -1,1 °C -4,4 °C 90 % 998,0 hPa 0,0 l/m² 0 min 0 min 0 W/m² 6,4 km/h (2 Bft) 97,92 %
03.02.2026 07:24 -0,6 °C -1,1 °C -4,4 °C 90 % 998,0 hPa 0,0 l/m² 0 min 0 min 0 W/m² 6,4 km/h (2 Bft) 100,00 %
03.02.2026 07:26 -0,6 °C -1,7 °C -4,4 °C 90 % 997,9 hPa 0,0 l/m² 0 min 0 min 0 W/m² 9,7 km/h (2 Bft) 100,00 %
03.02.2026 07:28 -0,6 °C -1,7 °C -4,4 °C 90 % 997,9 hPa 0,0 l/m² 0 min 0 min 0 W/m² 6,4 km/h (2 Bft) 97,87 %
03.02.2026 07:30 -0,6 °C -1,7 °C -4,4 °C 90 % 997,9 hPa 0,0 l/m² 0 min 0 min 0 W/m² 6,4 km/h (2 Bft) 97,14 %
03.02.2026 07:32 -0,7 °C -1,7 °C -4,4 °C 90 % 997,8 hPa 0,0 l/m² 0 min 0 min 0 W/m² 9,7 km/h (2 Bft) 97,87 %
03.02.2026 07:34 -0,7 °C -1,7 °C -4,4 °C 90 % 997,8 hPa 0,0 l/m² 0 min 0 min 0 W/m² 9,7 km/h (2 Bft) 100,00 %
03.02.2026 07:36 -0,7 °C -1,1 °C -4,4 °C 90 % 997,8 hPa 0,0 l/m² 0 min 0 min 0 W/m² 6,4 km/h (2 Bft) 62,50 %
03.02.2026 07:38 -0,7 °C -1,1 °C -4,4 °C 91 % 997,8 hPa 0,0 l/m² 0 min 0 min 0 W/m² 9,7 km/h (2 Bft) 86,36 %
03.02.2026 07:40 -0,7 °C -1,1 °C -4,4 °C 91 % 997,9 hPa 0,0 l/m² 0 min 0 min 0 W/m² 9,7 km/h (2 Bft) 91,84 %
03.02.2026 07:42 -0,7 °C -1,1 °C -4,4 °C 91 % 997,9 hPa 0,0 l/m² 0 min 0 min 0 W/m² 12,9 km/h (3 Bft) 95,92 %
03.02.2026 07:44 -0,7 °C -1,1 °C -4,4 °C 91 % 998,0 hPa 0,0 l/m² 0 min 0 min 0 W/m² 12,9 km/h (3 Bft) 95,74 %
03.02.2026 07:46 -0,6 °C -1,1 °C -4,4 °C 91 % 998,0 hPa 0,0 l/m² 0 min 0 min 0 W/m² 12,9 km/h (3 Bft) 93,48 %
03.02.2026 07:48 -0,6 °C -1,1 °C -4,4 °C 91 % 997,9 hPa 0,0 l/m² 0 min 0 min 0 W/m² 6,4 km/h (2 Bft) 94,29 %
03.02.2026 07:50 -0,6 °C -1,1 °C -4,4 °C 91 % 997,9 hPa 0,0 l/m² 0 min 0 min 0 W/m² 6,4 km/h (2 Bft) 95,74 %
03.02.2026 07:52 -0,6 °C -1,1 °C -4,4 °C 91 % 998,0 hPa 0,0 l/m² 0 min 0 min 0 W/m² 6,4 km/h (2 Bft) 96,30 %
03.02.2026 07:54 -0,6 °C -1,1 °C -4,4 °C 91 % 998,0 hPa 0,0 l/m² 0 min 0 min 0 W/m² 12,9 km/h (3 Bft) 93,88 %
03.02.2026 07:56 -0,6 °C -1,1 °C -4,4 °C 91 % 998,0 hPa 0,0 l/m² 0 min 0 min 0 W/m² 9,7 km/h (2 Bft) 95,83 %
03.02.2026 07:58 -0,6 °C -1,1 °C -4,4 °C 91 % 998,0 hPa 0,0 l/m² 0 min 0 min 0 W/m² 3,2 km/h (1 Bft) 93,75 %
03.02.2026 08:00 -0,6 °C -1,1 °C -4,4 °C 91 % 998,0 hPa 0,0 l/m² 0 min 0 min 0 W/m² 9,7 km/h (2 Bft) 95,74 %
03.02.2026 08:02 -0,6 °C -1,1 °C -4,4 °C 91 % 998,1 hPa 0,0 l/m² 0 min 0 min 0 W/m² 6,4 km/h (2 Bft) 95,74 %
03.02.2026 08:04 -0,6 °C -1,1 °C -4,4 °C 91 % 997,9 hPa 0,0 l/m² 0 min 0 min 0 W/m² 6,4 km/h (2 Bft) 91,67 %
03.02.2026 08:06 -0,6 °C -1,1 °C -4,4 °C 91 % 998,0 hPa 0,0 l/m² 0 min 0 min 0 W/m² 6,4 km/h (2 Bft) 96,43 %
03.02.2026 08:08 -0,6 °C -1,1 °C -4,4 °C 91 % 998,0 hPa 0,0 l/m² 0 min 0 min 0 W/m² 9,7 km/h (2 Bft) 98,04 %
03.02.2026 08:10 -0,6 °C -1,1 °C -4,4 °C 91 % 998,0 hPa 0,0 l/m² 0 min 0 min 0 W/m² 6,4 km/h (2 Bft) 100,00 %
03.02.2026 08:12 -0,6 °C -1,1 °C -4,4 °C 91 % 998,0 hPa 0,0 l/m² 0 min 0 min 0 W/m² 9,7 km/h (2 Bft) 100,00 %
03.02.2026 08:14 -0,6 °C -1,1 °C -4,4 °C 91 % 998,0 hPa 0,0 l/m² 0 min 0 min 1 W/m² 12,9 km/h (3 Bft) 100,00 %
03.02.2026 08:16 -0,6 °C -1,1 °C -4,4 °C 91 % 998,0 hPa 0,0 l/m² 0 min 0 min 5 W/m² 9,7 km/h (2 Bft) 97,87 %
03.02.2026 08:18 -0,6 °C -1,1 °C -4,4 °C 91 % 998,0 hPa 0,0 l/m² 0 min 0 min 5 W/m² 6,4 km/h (2 Bft) 100,00 %
03.02.2026 08:20 -0,6 °C -1,1 °C -4,4 °C 91 % 998,0 hPa 0,0 l/m² 0 min 0 min 7 W/m² 9,7 km/h (2 Bft) 100,00 %
03.02.2026 08:22 -0,6 °C -1,1 °C -4,4 °C 91 % 998,0 hPa 0,0 l/m² 0 min 0 min 8 W/m² 6,4 km/h (2 Bft) 100,00 %
03.02.2026 08:24 -0,6 °C -1,1 °C -4,4 °C 91 % 998,0 hPa 0,0 l/m² 0 min 0 min 9 W/m² 9,7 km/h (2 Bft) 100,00 %
03.02.2026 08:26 -0,6 °C -1,1 °C -4,4 °C 91 % 998,0 hPa 0,0 l/m² 0 min 0 min 11 W/m² 12,9 km/h (3 Bft) 95,92 %
03.02.2026 08:28 -0,6 °C -1,1 °C -4,4 °C 91 % 997,9 hPa 0,0 l/m² 0 min 0 min 12 W/m² 16,1 km/h (3 Bft) 100,00 %
03.02.2026 08:30 -0,6 °C -1,1 °C -4,4 °C 91 % 998,0 hPa 0,0 l/m² 0 min 0 min 12 W/m² 9,7 km/h (2 Bft) 100,00 %
03.02.2026 08:32 -0,6 °C -1,1 °C -4,4 °C 91 % 997,9 hPa 0,0 l/m² 0 min 0 min 14 W/m² 6,4 km/h (2 Bft) 97,87 %
03.02.2026 08:34 -0,6 °C -1,1 °C -4,4 °C 91 % 998,0 hPa 0,0 l/m² 0 min 0 min 16 W/m² 6,4 km/h (2 Bft) 100,00 %
03.02.2026 08:36 -0,6 °C -1,1 °C -4,4 °C 91 % 997,9 hPa 0,0 l/m² 0 min 0 min 17 W/m² 6,4 km/h (2 Bft) 100,00 %
03.02.2026 08:38 -0,6 °C -1,1 °C -4,4 °C 91 % 997,9 hPa 0,0 l/m² 0 min 0 min 18 W/m² 12,9 km/h (3 Bft) 98,15 %
03.02.2026 08:40 -0,6 °C -1,1 °C -4,4 °C 91 % 997,9 hPa 0,0 l/m² 0 min 0 min 18 W/m² 9,7 km/h (2 Bft) 97,92 %
03.02.2026 08:42 -0,6 °C -1,1 °C -4,4 °C 91 % 997,9 hPa 0,0 l/m² 0 min 0 min 19 W/m² 9,7 km/h (2 Bft) 100,00 %
03.02.2026 08:44 -0,6 °C -1,1 °C -4,4 °C 91 % 997,8 hPa 0,0 l/m² 0 min 0 min 19 W/m² 9,7 km/h (2 Bft) 100,00 %
03.02.2026 08:46 -0,6 °C -1,1 °C -4,4 °C 91 % 997,8 hPa 0,0 l/m² 0 min 0 min 21 W/m² 9,7 km/h (2 Bft) 100,00 %
03.02.2026 08:48 -0,6 °C -1,1 °C -4,4 °C 91 % 997,8 hPa 0,0 l/m² 0 min 0 min 21 W/m² 12,9 km/h (3 Bft) 100,00 %
03.02.2026 08:50 -0,6 °C -1,1 °C -4,4 °C 91 % 997,9 hPa 0,0 l/m² 0 min 0 min 21 W/m² 9,7 km/h (2 Bft) 97,87 %
03.02.2026 08:52 -0,6 °C -1,1 °C -4,4 °C 91 % 997,8 hPa 0,0 l/m² 0 min 0 min 23 W/m² 12,9 km/h (3 Bft) 100,00 %
03.02.2026 08:54 -0,6 °C -1,1 °C -4,4 °C 91 % 997,9 hPa 0,0 l/m² 0 min 0 min 24 W/m² 9,7 km/h (2 Bft) 100,00 %
03.02.2026 08:56 -0,6 °C -1,1 °C -4,4 °C 91 % 997,9 hPa 0,0 l/m² 0 min 0 min 25 W/m² 22,5 km/h (4 Bft) 100,00 %
03.02.2026 08:58 -0,5 °C -1,1 °C -4,4 °C 91 % 997,8 hPa 0,0 l/m² 0 min 0 min 25 W/m² 12,9 km/h (3 Bft) 100,00 %
03.02.2026 09:00 -0,5 °C -1,1 °C -4,4 °C 91 % 997,8 hPa 0,0 l/m² 0 min 0 min 25 W/m² 9,7 km/h (2 Bft) 100,00 %
03.02.2026 09:02 -0,5 °C -0,6 °C -4,4 °C 91 % 997,8 hPa 0,0 l/m² 0 min 0 min 25 W/m² 9,7 km/h (2 Bft) 95,74 %
03.02.2026 09:04 -0,5 °C -0,6 °C -4,4 °C 91 % 997,8 hPa 0,0 l/m² 0 min 0 min 26 W/m² 9,7 km/h (2 Bft) 100,00 %
03.02.2026 09:06 -0,5 °C -0,6 °C -4,4 °C 91 % 997,9 hPa 0,0 l/m² 0 min 0 min 26 W/m² 12,9 km/h (3 Bft) 97,87 %
03.02.2026 09:08 -0,4 °C -0,6 °C -4,4 °C 91 % 997,9 hPa 0,0 l/m² 0 min 0 min 26 W/m² 9,7 km/h (2 Bft) 100,00 %
03.02.2026 09:10 -0,4 °C -0,6 °C -4,4 °C 91 % 997,8 hPa 0,0 l/m² 0 min 0 min 28 W/m² 12,9 km/h (3 Bft) 97,83 %
03.02.2026 09:12 -0,4 °C -0,6 °C -4,4 °C 92 % 997,9 hPa 0,0 l/m² 0 min 0 min 28 W/m² 6,4 km/h (2 Bft) 97,30 %
03.02.2026 09:14 -0,4 °C -0,6 °C -4,4 °C 92 % 997,8 hPa 0,0 l/m² 0 min 0 min 30 W/m² 9,7 km/h (2 Bft) 97,92 %
03.02.2026 09:16 -0,4 °C -0,6 °C -3,9 °C 92 % 997,9 hPa 0,0 l/m² 0 min 0 min 30 W/m² 6,4 km/h (2 Bft) 97,87 %
03.02.2026 09:18 -0,3 °C -0,6 °C -3,9 °C 92 % 997,9 hPa 0,0 l/m² 0 min 0 min 32 W/m² 9,7 km/h (2 Bft) 97,87 %
03.02.2026 09:20 -0,3 °C -0,6 °C -3,9 °C 92 % 997,9 hPa 0,0 l/m² 0 min 0 min 32 W/m² 6,4 km/h (2 Bft) 97,83 %
03.02.2026 09:22 -0,3 °C -0,6 °C -3,9 °C 92 % 997,9 hPa 0,0 l/m² 0 min 0 min 33 W/m² 9,7 km/h (2 Bft) 95,74 %
03.02.2026 09:24 -0,3 °C -0,6 °C -3,9 °C 92 % 997,9 hPa 0,0 l/m² 0 min 0 min 33 W/m² 6,4 km/h (2 Bft) 90,57 %
03.02.2026 09:26 -0,2 °C 0,0 °C -3,9 °C 92 % 997,9 hPa 0,0 l/m² 0 min 0 min 35 W/m² 9,7 km/h (2 Bft) 95,92 %
03.02.2026 09:28 -0,2 °C 0,0 °C -3,9 °C 92 % 997,8 hPa 0,0 l/m² 0 min 0 min 36 W/m² 6,4 km/h (2 Bft) 92,11 %
03.02.2026 09:30 -0,2 °C 0,0 °C -3,9 °C 92 % 997,8 hPa 0,0 l/m² 0 min 0 min 37 W/m² 6,4 km/h (2 Bft) 95,83 %
03.02.2026 09:32 -0,2 °C 0,0 °C -3,9 °C 92 % 997,8 hPa 0,0 l/m² 0 min 0 min 38 W/m² 6,4 km/h (2 Bft) 95,65 %
03.02.2026 09:34 -0,2 °C 0,0 °C -3,9 °C 92 % 997,9 hPa 0,0 l/m² 0 min 0 min 39 W/m² 9,7 km/h (2 Bft) 93,62 %
03.02.2026 09:36 -0,1 °C 0,0 °C -3,9 °C 92 % 997,9 hPa 0,0 l/m² 0 min 0 min 40 W/m² 6,4 km/h (2 Bft) 93,62 %
03.02.2026 09:38 -0,1 °C 0,0 °C -3,9 °C 92 % 997,9 hPa 0,0 l/m² 0 min 0 min 43 W/m² 6,4 km/h (2 Bft) 85,19 %
03.02.2026 09:40 -0,1 °C 0,0 °C -3,9 °C 92 % 997,9 hPa 0,0 l/m² 0 min 0 min 45 W/m² 19,3 km/h (3 Bft) 67,35 %
03.02.2026 09:42 -0,1 °C 0,0 °C -3,9 °C 92 % 997,9 hPa 0,0 l/m² 0 min 0 min 47 W/m² 9,7 km/h (2 Bft) 93,75 %
03.02.2026 09:44 0,0 °C 0,0 °C -3,9 °C 92 % 997,9 hPa 0,0 l/m² 0 min 0 min 51 W/m² 9,7 km/h (2 Bft) 91,67 %
03.02.2026 09:46 0,0 °C 0,0 °C -3,9 °C 92 % 997,9 hPa 0,0 l/m² 0 min 0 min 55 W/m² 9,7 km/h (2 Bft) 93,62 %
03.02.2026 09:48 0,0 °C 0,0 °C -3,3 °C 92 % 998,0 hPa 0,0 l/m² 0 min 0 min 58 W/m² 9,7 km/h (2 Bft) 91,49 %
03.02.2026 09:50 0,1 °C 0,6 °C -3,3 °C 92 % 998,0 hPa 0,0 l/m² 0 min 0 min 62 W/m² 6,4 km/h (2 Bft) 93,62 %
03.02.2026 09:52 0,1 °C 0,6 °C -3,3 °C 92 % 997,9 hPa 0,0 l/m² 0 min 0 min 64 W/m² 6,4 km/h (2 Bft) 93,62 %
03.02.2026 09:54 0,1 °C 0,6 °C -3,3 °C 92 % 997,9 hPa 0,0 l/m² 0 min 0 min 67 W/m² 6,4 km/h (2 Bft) 92,45 %
03.02.2026 09:56 0,2 °C 0,6 °C -3,3 °C 92 % 998,0 hPa 0,0 l/m² 0 min 0 min 69 W/m² 9,7 km/h (2 Bft) 93,75 %
03.02.2026 09:58 0,2 °C 0,6 °C -3,3 °C 92 % 997,9 hPa 0,0 l/m² 0 min 0 min 71 W/m² 6,4 km/h (2 Bft) 95,74 %
03.02.2026 10:00 0,3 °C 0,6 °C -2,8 °C 92 % 997,9 hPa 0,0 l/m² 0 min 0 min 73 W/m² 9,7 km/h (2 Bft) 95,83 %
03.02.2026 10:02 0,3 °C 1,1 °C -2,8 °C 92 % 997,9 hPa 0,0 l/m² 0 min 0 min 75 W/m² 9,7 km/h (2 Bft) 94,74 %
03.02.2026 10:04 0,4 °C 1,1 °C -2,8 °C 92 % 997,9 hPa 0,0 l/m² 0 min 0 min 76 W/m² 9,7 km/h (2 Bft) 95,74 %
03.02.2026 10:06 0,4 °C 1,1 °C -2,8 °C 91 % 998,0 hPa 0,0 l/m² 0 min 0 min 77 W/m² 9,7 km/h (2 Bft) 93,62 %
03.02.2026 10:08 0,5 °C 1,1 °C -2,8 °C 91 % 998,0 hPa 0,0 l/m² 0 min 0 min 81 W/m² 12,9 km/h (3 Bft) 98,15 %
03.02.2026 10:10 0,5 °C 1,1 °C -2,8 °C 91 % 998,0 hPa 0,0 l/m² 0 min 0 min 83 W/m² 12,9 km/h (3 Bft) 97,83 %
03.02.2026 10:12 0,6 °C 1,1 °C -2,8 °C 91 % 998,0 hPa 0,0 l/m² 0 min 0 min 84 W/m² 9,7 km/h (2 Bft) 95,92 %
03.02.2026 10:14 0,6 °C 1,1 °C -2,8 °C 91 % 998,0 hPa 0,0 l/m² 0 min 0 min 86 W/m² 12,9 km/h (3 Bft) 94,59 %
03.02.2026 10:16 0,6 °C 1,1 °C -2,8 °C 91 % 998,0 hPa 0,0 l/m² 0 min 0 min 86 W/m² 9,7 km/h (2 Bft) 97,92 %
03.02.2026 10:18 0,6 °C 1,1 °C -2,8 °C 91 % 998,0 hPa 0,0 l/m² 0 min 0 min 86 W/m² 9,7 km/h (2 Bft) 95,65 %
03.02.2026 10:20 0,6 °C 1,1 °C -2,8 °C 91 % 998,0 hPa 0,0 l/m² 0 min 0 min 84 W/m² 9,7 km/h (2 Bft) 97,87 %
03.02.2026 10:22 0,6 °C 1,1 °C -2,8 °C 91 % 998,0 hPa 0,0 l/m² 0 min 0 min 83 W/m² 9,7 km/h (2 Bft) 95,74 %
03.02.2026 10:24 0,7 °C 1,1 °C -2,8 °C 91 % 998,0 hPa 0,0 l/m² 0 min 0 min 81 W/m² 9,7 km/h (2 Bft) 96,23 %
03.02.2026 10:26 0,7 °C 1,1 °C -2,8 °C 91 % 998,0 hPa 0,0 l/m² 0 min 0 min 78 W/m² 6,4 km/h (2 Bft) 97,96 %
03.02.2026 10:28 0,8 °C 1,1 °C -2,8 °C 90 % 998,0 hPa 0,0 l/m² 0 min 0 min 77 W/m² 9,7 km/h (2 Bft) 97,96 %
03.02.2026 10:30 0,8 °C 1,7 °C -2,8 °C 90 % 998,1 hPa 0,0 l/m² 0 min 0 min 76 W/m² 9,7 km/h (2 Bft) 100,00 %
03.02.2026 10:32 0,8 °C 1,7 °C -2,8 °C 90 % 998,1 hPa 0,0 l/m² 0 min 0 min 74 W/m² 6,4 km/h (2 Bft) 97,22 %
03.02.2026 10:34 0,9 °C 1,7 °C -2,8 °C 90 % 998,1 hPa 0,0 l/m² 0 min 0 min 68 W/m² 9,7 km/h (2 Bft) 100,00 %
03.02.2026 10:36 0,9 °C 1,1 °C -2,2 °C 90 % 998,1 hPa 0,0 l/m² 0 min 0 min 60 W/m² 9,7 km/h (2 Bft) 100,00 %
03.02.2026 10:38 1,0 °C 1,7 °C -2,2 °C 90 % 998,2 hPa 0,0 l/m² 0 min 0 min 53 W/m² 6,4 km/h (2 Bft) 100,00 %
03.02.2026 10:40 1,1 °C 1,1 °C -2,2 °C 90 % 998,1 hPa 0,0 l/m² 0 min 0 min 48 W/m² 6,4 km/h (2 Bft) 97,87 %
03.02.2026 10:42 1,1 °C 1,1 °C -2,2 °C 90 % 998,2 hPa 0,0 l/m² 0 min 0 min 46 W/m² 6,4 km/h (2 Bft) 100,00 %
03.02.2026 10:44 1,2 °C 1,7 °C -2,2 °C 90 % 998,2 hPa 0,0 l/m² 0 min 0 min 46 W/m² 6,4 km/h (2 Bft) 97,87 %
03.02.2026 10:46 1,2 °C 1,1 °C -2,2 °C 90 % 998,3 hPa 0,0 l/m² 0 min 0 min 44 W/m² 6,4 km/h (2 Bft) 97,96 %
03.02.2026 10:48 1,2 °C 1,1 °C -2,2 °C 90 % 998,2 hPa 0,0 l/m² 0 min 0 min 42 W/m² 12,9 km/h (3 Bft) 100,00 %
03.02.2026 10:50 1,3 °C 1,7 °C -2,2 °C 90 % 998,3 hPa 0,0 l/m² 0 min 0 min 40 W/m² 25,7 km/h (4 Bft) 100,00 %
03.02.2026 10:52 1,3 °C 1,7 °C -2,2 °C 89 % 998,4 hPa 0,0 l/m² 0 min 0 min 39 W/m² 35,4 km/h (5 Bft) 100,00 %
03.02.2026 10:54 1,4 °C 1,7 °C -1,7 °C 89 % 998,4 hPa 0,0 l/m² 0 min 0 min 39 W/m² 22,5 km/h (4 Bft) 100,00 %
03.02.2026 10:56 1,5 °C 2,2 °C -1,7 °C 88 % 998,4 hPa 0,0 l/m² 0 min 0 min 40 W/m² 16,1 km/h (3 Bft) 95,74 %
03.02.2026 10:58 1,6 °C 2,2 °C -2,2 °C 88 % 998,5 hPa 0,0 l/m² 0 min 0 min 43 W/m² 22,5 km/h (4 Bft) 97,87 %
03.02.2026 11:00 1,7 °C 1,7 °C -2,2 °C 87 % 998,5 hPa 0,0 l/m² 0 min 0 min 45 W/m² 22,5 km/h (4 Bft) 98,15 %
03.02.2026 11:02 1,8 °C 1,7 °C -2,2 °C 87 % 998,6 hPa 0,0 l/m² 0 min 2 min 45 W/m² 22,5 km/h (4 Bft) 100,00 %
03.02.2026 11:04 1,8 °C 1,7 °C -2,2 °C 87 % 998,6 hPa 0,0 l/m² 0 min 2 min 44 W/m² 35,4 km/h (5 Bft) 100,00 %
03.02.2026 11:06 1,9 °C 1,7 °C -2,8 °C 86 % 998,6 hPa 0,0 l/m² 0 min 2 min 45 W/m² 35,4 km/h (5 Bft) 97,87 %
03.02.2026 11:08 1,9 °C 1,7 °C -2,8 °C 86 % 998,7 hPa 0,0 l/m² 0 min 0 min 47 W/m² 29,0 km/h (5 Bft) 100,00 %
03.02.2026 11:10 1,9 °C 1,7 °C -2,8 °C 86 % 998,7 hPa 0,0 l/m² 0 min 0 min 48 W/m² 19,3 km/h (3 Bft) 100,00 %
03.02.2026 11:12 2,0 °C 1,7 °C -2,8 °C 86 % 998,7 hPa 0,0 l/m² 0 min 0 min 48 W/m² 22,5 km/h (4 Bft) 100,00 %
03.02.2026 11:14 2,0 °C 1,7 °C -2,8 °C 86 % 998,7 hPa 0,0 l/m² 0 min 0 min 47 W/m² 19,3 km/h (3 Bft) 97,87 %
03.02.2026 11:16 2,0 °C 1,7 °C -2,8 °C 86 % 998,7 hPa 0,0 l/m² 0 min 2 min 48 W/m² 25,7 km/h (4 Bft) 98,15 %
03.02.2026 11:18 2,0 °C 1,1 °C -2,8 °C 86 % 998,7 hPa 0,0 l/m² 0 min 2 min 48 W/m² 19,3 km/h (3 Bft) 97,96 %
03.02.2026 11:20 2,0 °C 1,1 °C -2,8 °C 86 % 998,7 hPa 0,0 l/m² 0 min 2 min 45 W/m² 19,3 km/h (3 Bft) 97,87 %
03.02.2026 11:22 2,0 °C 1,1 °C -3,3 °C 86 % 998,7 hPa 0,2 l/m² 0 min 2 min 42 W/m² 16,1 km/h (3 Bft) 97,30 %
03.02.2026 11:24 2,0 °C 1,1 °C -3,3 °C 86 % 998,7 hPa 0,0 l/m² 0 min 2 min 42 W/m² 22,5 km/h (4 Bft) 95,74 %
03.02.2026 11:26 1,9 °C 1,1 °C -3,3 °C 86 % 998,6 hPa 0,0 l/m² 0 min 2 min 42 W/m² 22,5 km/h (4 Bft) 93,62 %
03.02.2026 11:28 1,9 °C 1,1 °C -3,3 °C 87 % 998,7 hPa 0,0 l/m² 0 min 2 min 42 W/m² 19,3 km/h (3 Bft) 95,65 %
03.02.2026 11:30 1,9 °C 1,1 °C -3,3 °C 87 % 998,7 hPa 0,2 l/m² 0 min 2 min 42 W/m² 22,5 km/h (4 Bft) 98,11 %
03.02.2026 11:32 1,9 °C 1,1 °C -3,3 °C 87 % 998,7 hPa 0,0 l/m² 0 min 2 min 42 W/m² 22,5 km/h (4 Bft) 91,84 %
03.02.2026 11:34 1,8 °C 1,1 °C -3,3 °C 88 % 998,7 hPa 0,0 l/m² 0 min 2 min 42 W/m² 22,5 km/h (4 Bft) 95,83 %
03.02.2026 11:36 1,8 °C 1,1 °C -3,3 °C 88 % 998,7 hPa 0,2 l/m² 0 min 2 min 43 W/m² 19,3 km/h (3 Bft) 100,00 %
03.02.2026 11:38 1,7 °C 1,1 °C -3,3 °C 88 % 998,6 hPa 0,0 l/m² 0 min 2 min 44 W/m² 19,3 km/h (3 Bft) 93,75 %
03.02.2026 11:40 1,7 °C 0,6 °C -3,3 °C 88 % 998,7 hPa 0,0 l/m² 0 min 2 min 44 W/m² 16,1 km/h (3 Bft) 95,65 %
03.02.2026 11:42 1,7 °C 0,6 °C -3,3 °C 89 % 998,7 hPa 0,2 l/m² 0 min 2 min 42 W/m² 19,3 km/h (3 Bft) 97,87 %
03.02.2026 11:44 1,7 °C 0,6 °C -3,3 °C 89 % 998,7 hPa 0,0 l/m² 0 min 2 min 42 W/m² 25,7 km/h (4 Bft) 97,87 %
03.02.2026 11:46 1,6 °C 0,6 °C -3,3 °C 89 % 998,7 hPa 0,0 l/m² 0 min 0 min 44 W/m² 16,1 km/h (3 Bft) 100,00 %
03.02.2026 11:48 1,6 °C 0,6 °C -3,3 °C 89 % 998,7 hPa 0,0 l/m² 0 min 2 min 44 W/m² 16,1 km/h (3 Bft) 100,00 %
03.02.2026 11:50 1,6 °C 0,6 °C -3,3 °C 90 % 998,8 hPa 0,2 l/m² 0 min 2 min 44 W/m² 22,5 km/h (4 Bft) 100,00 %
03.02.2026 11:52 1,6 °C 0,6 °C -3,3 °C 90 % 998,7 hPa 0,0 l/m² 0 min 2 min 42 W/m² 19,3 km/h (3 Bft) 97,14 %
03.02.2026 11:54 1,6 °C 0,6 °C -3,3 °C 90 % 998,7 hPa 0,0 l/m² 0 min 2 min 45 W/m² 22,5 km/h (4 Bft) 100,00 %
03.02.2026 11:56 1,6 °C 0,6 °C -3,3 °C 90 % 998,9 hPa 0,2 l/m² 0 min 2 min 46 W/m² 16,1 km/h (3 Bft) 100,00 %
03.02.2026 11:58 1,5 °C 0,6 °C -3,3 °C 90 % 998,8 hPa 0,0 l/m² 0 min 0 min 42 W/m² 19,3 km/h (3 Bft) 100,00 %
03.02.2026 12:00 1,5 °C 0,6 °C -3,3 °C 91 % 998,8 hPa 0,0 l/m² 0 min 0 min 39 W/m² 12,9 km/h (3 Bft) 100,00 %
03.02.2026 12:02 1,5 °C 0,6 °C -3,3 °C 91 % 998,8 hPa 0,0 l/m² 0 min 0 min 38 W/m² 16,1 km/h (3 Bft) 95,74 %
03.02.2026 12:04 1,5 °C 0,6 °C -3,3 °C 91 % 998,8 hPa 0,2 l/m² 0 min 0 min 37 W/m² 16,1 km/h (3 Bft) 98,11 %
03.02.2026 12:07 1,4 °C 0,6 °C -3,3 °C 91 % 998,8 hPa 0,2 l/m² 0 min 3 min 36 W/m² 22,5 km/h (4 Bft) 100,00 %
03.02.2026 12:08 1,4 °C 0,6 °C -3,3 °C 91 % 998,8 hPa 0,0 l/m² 0 min 1 min 35 W/m² 16,1 km/h (3 Bft) 100,00 %
03.02.2026 12:12 1,4 °C 0,6 °C -3,3 °C 92 % 998,8 hPa 0,0 l/m² 0 min 4 min 33 W/m² 25,7 km/h (4 Bft) 98,15 %
03.02.2026 12:14 1,4 °C 0,6 °C -3,3 °C 92 % 998,8 hPa 0,2 l/m² 0 min 2 min 35 W/m² 22,5 km/h (4 Bft) 97,87 %
03.02.2026 12:16 1,3 °C 0,6 °C -3,3 °C 92 % 998,7 hPa 0,2 l/m² 0 min 2 min 38 W/m² 22,5 km/h (4 Bft) 93,62 %
03.02.2026 12:18 1,3 °C 0,6 °C -3,3 °C 92 % 998,8 hPa 0,0 l/m² 0 min 2 min 39 W/m² 22,5 km/h (4 Bft) 95,74 %
03.02.2026 12:20 1,3 °C 0,6 °C -3,3 °C 92 % 998,8 hPa 0,0 l/m² 0 min 2 min 39 W/m² 19,3 km/h (3 Bft) 95,74 %
03.02.2026 12:22 1,3 °C 0,6 °C -3,3 °C 92 % 998,9 hPa 0,2 l/m² 0 min 2 min 36 W/m² 29,0 km/h (5 Bft) 92,68 %
03.02.2026 12:24 1,3 °C 0,6 °C -3,3 °C 92 % 999,0 hPa 0,2 l/m² 0 min 2 min 37 W/m² 19,3 km/h (3 Bft) 95,83 %
03.02.2026 12:26 1,3 °C 0,6 °C -3,3 °C 92 % 999,0 hPa 0,0 l/m² 0 min 2 min 36 W/m² 16,1 km/h (3 Bft) 93,88 %
03.02.2026 12:28 1,3 °C 0,6 °C -3,3 °C 92 % 998,9 hPa 0,0 l/m² 0 min 2 min 38 W/m² 22,5 km/h (4 Bft) 95,83 %
03.02.2026 12:30 1,3 °C 0,6 °C -3,3 °C 92 % 998,8 hPa 0,0 l/m² 0 min 2 min 42 W/m² 19,3 km/h (3 Bft) 93,75 %
03.02.2026 12:32 1,3 °C 0,6 °C -3,3 °C 93 % 998,8 hPa 0,2 l/m² 0 min 2 min 45 W/m² 25,7 km/h (4 Bft) 95,74 %
03.02.2026 12:34 1,3 °C 0,6 °C -3,3 °C 93 % 998,7 hPa 0,0 l/m² 0 min 2 min 46 W/m² 22,5 km/h (4 Bft) 93,62 %
03.02.2026 12:36 1,3 °C 0,6 °C -3,3 °C 93 % 998,7 hPa 0,2 l/m² 0 min 2 min 46 W/m² 22,5 km/h (4 Bft) 93,62 %
03.02.2026 12:38 1,3 °C 0,6 °C -3,3 °C 93 % 998,7 hPa 0,0 l/m² 0 min 2 min 48 W/m² 22,5 km/h (4 Bft) 95,24 %
03.02.2026 12:40 1,3 °C 0,6 °C -3,3 °C 93 % 998,7 hPa 0,0 l/m² 0 min 2 min 51 W/m² 16,1 km/h (3 Bft) 93,88 %
03.02.2026 12:42 1,3 °C 0,6 °C -3,3 °C 93 % 998,6 hPa 0,0 l/m² 0 min 0 min 54 W/m² 19,3 km/h (3 Bft) 95,92 %
03.02.2026 12:44 1,3 °C 0,6 °C -3,3 °C 93 % 998,5 hPa 0,0 l/m² 0 min 0 min 54 W/m² 19,3 km/h (3 Bft) 95,74 %
03.02.2026 12:46 1,3 °C 0,6 °C -3,3 °C 93 % 998,4 hPa 0,0 l/m² 0 min 0 min 51 W/m² 16,1 km/h (3 Bft) 95,74 %
03.02.2026 12:48 1,3 °C 0,6 °C -3,3 °C 94 % 998,5 hPa 0,0 l/m² 0 min 2 min 47 W/m² 25,7 km/h (4 Bft) 95,74 %
03.02.2026 12:50 1,3 °C 0,6 °C -3,3 °C 94 % 998,4 hPa 0,2 l/m² 0 min 2 min 44 W/m² 22,5 km/h (4 Bft) 97,62 %
03.02.2026 12:52 1,3 °C 0,6 °C -3,3 °C 94 % 998,3 hPa 0,0 l/m² 0 min 2 min 46 W/m² 25,7 km/h (4 Bft) 95,74 %
03.02.2026 12:54 1,3 °C 0,6 °C -3,3 °C 94 % 998,2 hPa 0,2 l/m² 0 min 0 min 47 W/m² 19,3 km/h (3 Bft) 97,96 %
03.02.2026 12:56 1,3 °C 0,6 °C -3,3 °C 94 % 998,2 hPa 0,0 l/m² 0 min 2 min 52 W/m² 32,2 km/h (5 Bft) 95,83 %
03.02.2026 12:58 1,3 °C 0,6 °C -3,3 °C 94 % 998,1 hPa 0,0 l/m² 0 min 2 min 63 W/m² 19,3 km/h (3 Bft) 95,83 %
03.02.2026 13:00 1,3 °C 0,6 °C -3,3 °C 94 % 998,1 hPa 0,0 l/m² 0 min 0 min 77 W/m² 22,5 km/h (4 Bft) 95,74 %
03.02.2026 13:02 1,3 °C 1,1 °C -2,8 °C 94 % 998,2 hPa 0,0 l/m² 0 min 0 min 89 W/m² 22,5 km/h (4 Bft) 97,83 %
03.02.2026 13:04 1,4 °C 1,1 °C -2,8 °C 94 % 998,2 hPa 0,0 l/m² 0 min 0 min 101 W/m² 19,3 km/h (3 Bft) 95,83 %
03.02.2026 13:06 1,4 °C 1,1 °C -2,8 °C 94 % 998,2 hPa 0,0 l/m² 0 min 0 min 106 W/m² 19,3 km/h (3 Bft) 95,74 %
03.02.2026 13:08 1,4 °C 1,1 °C -2,8 °C 94 % 998,2 hPa 0,0 l/m² 0 min 0 min 108 W/m² 12,9 km/h (3 Bft) 97,67 %
03.02.2026 13:10 1,5 °C 1,1 °C -2,8 °C 94 % 998,2 hPa 0,0 l/m² 0 min 0 min 105 W/m² 19,3 km/h (3 Bft) 97,87 %
03.02.2026 13:12 1,5 °C 1,1 °C -2,8 °C 94 % 998,3 hPa 0,0 l/m² 0 min 0 min 103 W/m² 16,1 km/h (3 Bft) 95,92 %
03.02.2026 13:14 1,6 °C 1,1 °C -2,8 °C 94 % 998,3 hPa 0,0 l/m² 0 min 0 min 101 W/m² 16,1 km/h (3 Bft) 97,92 %
03.02.2026 13:16 1,6 °C 1,7 °C -2,8 °C 94 % 998,4 hPa 0,0 l/m² 0 min 0 min 105 W/m² 12,9 km/h (3 Bft) 95,74 %
03.02.2026 13:18 1,6 °C 1,7 °C -2,8 °C 94 % 998,4 hPa 0,0 l/m² 0 min 0 min 109 W/m² 19,3 km/h (3 Bft) 97,87 %
03.02.2026 13:20 1,7 °C 1,7 °C -2,8 °C 95 % 998,3 hPa 0,0 l/m² 0 min 0 min 110 W/m² 16,1 km/h (3 Bft) 97,87 %
03.02.2026 13:22 1,7 °C 1,7 °C -2,8 °C 95 % 998,4 hPa 0,0 l/m² 0 min 0 min 115 W/m² 16,1 km/h (3 Bft) 94,29 %
03.02.2026 13:24 1,7 °C 1,7 °C -2,8 °C 95 % 998,3 hPa 0,0 l/m² 0 min 0 min 124 W/m² 19,3 km/h (3 Bft) 98,18 %
03.02.2026 13:26 1,7 °C 1,7 °C -2,2 °C 95 % 998,3 hPa 0,0 l/m² 0 min 2 min 127 W/m² 16,1 km/h (3 Bft) 95,83 %
03.02.2026 13:28 1,8 °C 2,2 °C -2,2 °C 95 % 998,3 hPa 0,0 l/m² 0 min 2 min 134 W/m² 16,1 km/h (3 Bft) 97,96 %
03.02.2026 13:30 1,8 °C 2,2 °C -2,2 °C 95 % 998,2 hPa 0,0 l/m² 0 min 0 min 143 W/m² 19,3 km/h (3 Bft) 95,65 %
03.02.2026 13:32 1,9 °C 2,2 °C -2,2 °C 95 % 998,1 hPa 0,0 l/m² 0 min 0 min 148 W/m² 16,1 km/h (3 Bft) 97,92 %
03.02.2026 13:34 1,9 °C 2,2 °C -2,2 °C 95 % 998,2 hPa 0,0 l/m² 0 min 0 min 150 W/m² 16,1 km/h (3 Bft) 97,87 %
03.02.2026 13:36 1,9 °C 2,2 °C -2,2 °C 95 % 998,1 hPa 0,0 l/m² 0 min 0 min 151 W/m² 38,6 km/h (5 Bft) 97,14 %
03.02.2026 13:38 2,0 °C 2,2 °C -2,2 °C 95 % 998,1 hPa 0,0 l/m² 0 min 0 min 147 W/m² 16,1 km/h (3 Bft) 100,00 %
03.02.2026 13:40 2,1 °C 2,2 °C -2,2 °C 95 % 998,0 hPa 0,0 l/m² 0 min 0 min 141 W/m² 19,3 km/h (3 Bft) 100,00 %
03.02.2026 13:42 2,1 °C 2,2 °C -2,2 °C 95 % 998,0 hPa 0,0 l/m² 0 min 0 min 122 W/m² 25,7 km/h (4 Bft) 100,00 %
03.02.2026 13:44 2,1 °C 2,2 °C -2,2 °C 95 % 998,1 hPa 0,0 l/m² 0 min 0 min 99 W/m² 19,3 km/h (3 Bft) 97,92 %
03.02.2026 13:46 2,1 °C 2,2 °C -2,2 °C 95 % 998,1 hPa 0,0 l/m² 0 min 0 min 91 W/m² 19,3 km/h (3 Bft) 100,00 %
03.02.2026 13:48 2,1 °C 1,7 °C -2,2 °C 95 % 998,2 hPa 0,0 l/m² 0 min 0 min 80 W/m² 29,0 km/h (5 Bft) 100,00 %
03.02.2026 13:50 2,1 °C 1,7 °C -2,2 °C 94 % 998,2 hPa 0,0 l/m² 0 min 0 min 65 W/m² 19,3 km/h (3 Bft) 100,00 %
03.02.2026 13:52 2,2 °C 1,7 °C -2,2 °C 94 % 998,1 hPa 0,0 l/m² 0 min 0 min 56 W/m² 22,5 km/h (4 Bft) 97,96 %
03.02.2026 13:54 2,2 °C 1,7 °C -2,2 °C 94 % 998,1 hPa 0,0 l/m² 0 min 0 min 52 W/m² 19,3 km/h (3 Bft) 100,00 %
03.02.2026 13:56 2,2 °C 1,7 °C -2,2 °C 94 % 998,2 hPa 0,0 l/m² 0 min 0 min 60 W/m² 22,5 km/h (4 Bft) 100,00 %
03.02.2026 13:58 2,2 °C 1,7 °C -2,2 °C 94 % 998,2 hPa 0,0 l/m² 0 min 0 min 72 W/m² 22,5 km/h (4 Bft) 97,96 %
03.02.2026 14:00 2,2 °C 1,7 °C -2,2 °C 94 % 998,1 hPa 0,0 l/m² 0 min 0 min 82 W/m² 19,3 km/h (3 Bft) 100,00 %
03.02.2026 14:02 2,2 °C 1,7 °C -2,2 °C 94 % 998,1 hPa 0,0 l/m² 0 min 0 min 85 W/m² 19,3 km/h (3 Bft) 100,00 %
03.02.2026 14:04 2,2 °C 1,7 °C -2,2 °C 94 % 998,1 hPa 0,0 l/m² 0 min 0 min 94 W/m² 19,3 km/h (3 Bft) 100,00 %
03.02.2026 14:06 2,3 °C 2,2 °C -2,2 °C 94 % 998,1 hPa 0,0 l/m² 0 min 2 min 116 W/m² 29,0 km/h (5 Bft) 97,87 %
03.02.2026 14:08 2,3 °C 2,2 °C -2,2 °C 94 % 998,1 hPa 0,0 l/m² 0 min 2 min 113 W/m² 12,9 km/h (3 Bft) 100,00 %
03.02.2026 14:10 2,3 °C 2,2 °C -2,2 °C 94 % 998,1 hPa 0,0 l/m² 0 min 0 min 109 W/m² 16,1 km/h (3 Bft) 100,00 %
03.02.2026 14:12 2,3 °C 2,2 °C -2,2 °C 94 % 998,1 hPa 0,0 l/m² 0 min 0 min 111 W/m² 16,1 km/h (3 Bft) 97,87 %
03.02.2026 14:14 2,4 °C 2,2 °C -2,2 °C 94 % 998,1 hPa 0,0 l/m² 0 min 0 min 127 W/m² 22,5 km/h (4 Bft) 97,96 %
03.02.2026 14:16 2,4 °C 2,2 °C -2,2 °C 94 % 998,1 hPa 0,0 l/m² 0 min 0 min 128 W/m² 16,1 km/h (3 Bft) 97,87 %
03.02.2026 14:18 2,4 °C 2,2 °C -2,2 °C 94 % 998,1 hPa 0,0 l/m² 0 min 0 min 127 W/m² 29,0 km/h (5 Bft) 97,14 %
03.02.2026 14:20 2,4 °C 2,2 °C -2,2 °C 94 % 998,0 hPa 0,0 l/m² 0 min 0 min 113 W/m² 25,7 km/h (4 Bft) 100,00 %
03.02.2026 14:22 2,4 °C 2,2 °C -2,2 °C 94 % 997,9 hPa 0,0 l/m² 0 min 0 min 113 W/m² 22,5 km/h (4 Bft) 95,74 %
03.02.2026 14:24 2,4 °C 2,2 °C -2,2 °C 94 % 997,9 hPa 0,0 l/m² 0 min 0 min 116 W/m² 22,5 km/h (4 Bft) 97,87 %
03.02.2026 14:26 2,4 °C 2,2 °C -2,2 °C 94 % 998,0 hPa 0,0 l/m² 0 min 0 min 111 W/m² 29,0 km/h (5 Bft) 96,30 %
03.02.2026 14:28 2,4 °C 2,2 °C -2,2 °C 94 % 997,9 hPa 0,0 l/m² 0 min 0 min 103 W/m² 25,7 km/h (4 Bft) 97,83 %
03.02.2026 14:30 2,4 °C 2,2 °C -2,2 °C 94 % 997,9 hPa 0,0 l/m² 0 min 0 min 110 W/m² 25,7 km/h (4 Bft) 97,96 %
03.02.2026 14:32 2,4 °C 2,2 °C -2,2 °C 94 % 997,8 hPa 0,0 l/m² 0 min 0 min 118 W/m² 22,5 km/h (4 Bft) 97,96 %
03.02.2026 14:34 2,5 °C 2,2 °C -2,2 °C 94 % 997,9 hPa 0,0 l/m² 0 min 0 min 120 W/m² 32,2 km/h (5 Bft) 95,74 %
03.02.2026 14:36 2,5 °C 2,2 °C -2,2 °C 94 % 997,8 hPa 0,0 l/m² 0 min 0 min 121 W/m² 25,7 km/h (4 Bft) 97,87 %
03.02.2026 14:38 2,5 °C 2,8 °C -2,2 °C 94 % 997,8 hPa 0,0 l/m² 0 min 0 min 126 W/m² 16,1 km/h (3 Bft) 97,14 %
03.02.2026 14:40 2,5 °C 2,8 °C -1,7 °C 94 % 997,9 hPa 0,0 l/m² 0 min 0 min 124 W/m² 19,3 km/h (3 Bft) 98,11 %
03.02.2026 14:42 2,5 °C 2,2 °C -2,2 °C 94 % 997,8 hPa 0,0 l/m² 0 min 0 min 117 W/m² 29,0 km/h (5 Bft) 97,92 %
03.02.2026 14:44 2,6 °C 2,2 °C -2,2 °C 94 % 997,8 hPa 0,0 l/m² 0 min 0 min 111 W/m² 19,3 km/h (3 Bft) 97,96 %
03.02.2026 14:46 2,6 °C 2,2 °C -2,2 °C 94 % 997,8 hPa 0,0 l/m² 0 min 0 min 93 W/m² 22,5 km/h (4 Bft) 97,92 %
03.02.2026 14:48 2,6 °C 2,2 °C -2,2 °C 94 % 997,8 hPa 0,0 l/m² 0 min 0 min 78 W/m² 29,0 km/h (5 Bft) 97,92 %
03.02.2026 14:50 2,6 °C 2,2 °C -2,2 °C 94 % 997,7 hPa 0,0 l/m² 0 min 0 min 69 W/m² 29,0 km/h (5 Bft) 93,62 %
03.02.2026 14:52 2,6 °C 2,2 °C -2,2 °C 94 % 997,7 hPa 0,0 l/m² 0 min 0 min 66 W/m² 22,5 km/h (4 Bft) 97,87 %
03.02.2026 14:54 2,6 °C 2,2 °C -2,2 °C 93 % 997,7 hPa 0,0 l/m² 0 min 0 min 65 W/m² 25,7 km/h (4 Bft) 97,14 %
03.02.2026 14:56 2,6 °C 2,2 °C -2,2 °C 93 % 997,8 hPa 0,0 l/m² 0 min 0 min 70 W/m² 25,7 km/h (4 Bft) 92,31 %
03.02.2026 14:58 2,6 °C 2,2 °C -2,2 °C 93 % 997,7 hPa 0,0 l/m² 0 min 0 min 70 W/m² 22,5 km/h (4 Bft) 95,65 %
03.02.2026 15:00 2,6 °C 2,2 °C -2,2 °C 94 % 997,8 hPa 0,0 l/m² 0 min 0 min 65 W/m² 29,0 km/h (5 Bft) 95,74 %
03.02.2026 15:02 2,6 °C 2,2 °C -2,2 °C 93 % 997,7 hPa 0,0 l/m² 0 min 0 min 63 W/m² 25,7 km/h (4 Bft) 95,74 %
03.02.2026 15:04 2,6 °C 2,2 °C -2,2 °C 93 % 997,7 hPa 0,0 l/m² 0 min 0 min 65 W/m² 29,0 km/h (5 Bft) 95,83 %
03.02.2026 15:06 2,6 °C 2,2 °C -2,2 °C 93 % 997,8 hPa 0,0 l/m² 0 min 0 min 68 W/m² 22,5 km/h (4 Bft) 98,28 %
03.02.2026 15:08 2,6 °C 2,2 °C -2,2 °C 93 % 997,7 hPa 0,0 l/m² 0 min 0 min 67 W/m² 25,7 km/h (4 Bft) 97,22 %
03.02.2026 15:10 2,6 °C 2,2 °C -2,2 °C 93 % 997,8 hPa 0,0 l/m² 0 min 0 min 70 W/m² 22,5 km/h (4 Bft) 95,65 %
03.02.2026 15:12 2,6 °C 2,2 °C -2,2 °C 93 % 997,7 hPa 0,0 l/m² 0 min 0 min 74 W/m² 29,0 km/h (5 Bft) 95,74 %
03.02.2026 15:14 2,6 °C 2,2 °C -2,2 °C 93 % 997,7 hPa 0,0 l/m² 0 min 0 min 77 W/m² 19,3 km/h (3 Bft) 95,74 %
03.02.2026 15:16 2,6 °C 2,2 °C -2,2 °C 93 % 997,8 hPa 0,0 l/m² 0 min 0 min 81 W/m² 25,7 km/h (4 Bft) 97,87 %
03.02.2026 15:18 2,6 °C 2,2 °C -2,2 °C 93 % 997,8 hPa 0,0 l/m² 0 min 0 min 83 W/m² 19,3 km/h (3 Bft) 97,87 %
03.02.2026 15:20 2,6 °C 2,2 °C -2,2 °C 93 % 997,8 hPa 0,0 l/m² 0 min 0 min 79 W/m² 16,1 km/h (3 Bft) 93,62 %
03.02.2026 15:22 2,6 °C 2,2 °C -2,2 °C 93 % 997,8 hPa 0,0 l/m² 0 min 0 min 84 W/m² 19,3 km/h (3 Bft) 95,65 %
03.02.2026 15:24 2,7 °C 2,8 °C -2,2 °C 93 % 997,8 hPa 0,0 l/m² 0 min 0 min 83 W/m² 12,9 km/h (3 Bft) 95,74 %
03.02.2026 15:26 2,7 °C 2,8 °C -2,2 °C 93 % 997,8 hPa 0,0 l/m² 0 min 0 min 84 W/m² 19,3 km/h (3 Bft) 95,74 %
03.02.2026 15:28 2,7 °C 2,8 °C -1,7 °C 93 % 997,9 hPa 0,0 l/m² 0 min 0 min 85 W/m² 22,5 km/h (4 Bft) 95,74 %
03.02.2026 15:30 2,7 °C 2,8 °C -1,7 °C 93 % 997,8 hPa 0,0 l/m² 0 min 0 min 83 W/m² 22,5 km/h (4 Bft) 97,87 %
03.02.2026 15:32 2,7 °C 2,8 °C -1,7 °C 93 % 997,9 hPa 0,0 l/m² 0 min 0 min 91 W/m² 25,7 km/h (4 Bft) 97,87 %
03.02.2026 15:34 2,7 °C 2,8 °C -1,7 °C 93 % 997,8 hPa 0,0 l/m² 0 min 0 min 107 W/m² 19,3 km/h (3 Bft) 95,65 %
03.02.2026 15:36 2,8 °C 2,8 °C -1,7 °C 93 % 997,8 hPa 0,0 l/m² 0 min 0 min 113 W/m² 16,1 km/h (3 Bft) 95,74 %
03.02.2026 15:38 2,8 °C 2,8 °C -1,7 °C 93 % 997,8 hPa 0,0 l/m² 0 min 0 min 107 W/m² 22,5 km/h (4 Bft) 97,87 %
03.02.2026 15:40 2,8 °C 2,8 °C -1,7 °C 93 % 997,9 hPa 0,0 l/m² 0 min 0 min 105 W/m² 22,5 km/h (4 Bft) 97,87 %
03.02.2026 15:42 2,8 °C 2,8 °C -1,7 °C 93 % 997,9 hPa 0,0 l/m² 0 min 0 min 99 W/m² 16,1 km/h (3 Bft) 97,87 %
03.02.2026 15:44 2,9 °C 2,8 °C -1,7 °C 93 % 997,8 hPa 0,0 l/m² 0 min 0 min 97 W/m² 19,3 km/h (3 Bft) 97,87 %
03.02.2026 15:46 2,9 °C 2,8 °C -1,7 °C 93 % 997,9 hPa 0,0 l/m² 0 min 0 min 93 W/m² 19,3 km/h (3 Bft) 95,65 %
03.02.2026 15:48 2,9 °C 2,8 °C -1,7 °C 93 % 997,9 hPa 0,0 l/m² 0 min 0 min 88 W/m² 25,7 km/h (4 Bft) 95,74 %
03.02.2026 15:50 2,9 °C 2,8 °C -1,7 °C 93 % 997,9 hPa 0,0 l/m² 0 min 0 min 82 W/m² 22,5 km/h (4 Bft) 97,87 %
03.02.2026 15:52 2,9 °C 2,8 °C -1,7 °C 93 % 997,8 hPa 0,0 l/m² 0 min 0 min 77 W/m² 22,5 km/h (4 Bft) 97,87 %
03.02.2026 15:54 2,9 °C 2,8 °C -1,7 °C 93 % 997,9 hPa 0,0 l/m² 0 min 0 min 72 W/m² 19,3 km/h (3 Bft) 97,87 %
03.02.2026 15:56 2,9 °C 2,8 °C -1,7 °C 93 % 997,8 hPa 0,0 l/m² 0 min 0 min 66 W/m² 19,3 km/h (3 Bft) 95,65 %
03.02.2026 15:58 3,0 °C 2,8 °C -1,7 °C 93 % 997,8 hPa 0,0 l/m² 0 min 0 min 64 W/m² 19,3 km/h (3 Bft) 97,87 %
03.02.2026 16:00 3,0 °C 2,8 °C -1,7 °C 93 % 997,8 hPa 0,0 l/m² 0 min 0 min 65 W/m² 19,3 km/h (3 Bft) 97,87 %
03.02.2026 16:02 3,0 °C 2,8 °C -1,7 °C 93 % 997,8 hPa 0,0 l/m² 0 min 0 min 65 W/m² 22,5 km/h (4 Bft) 95,74 %
03.02.2026 16:04 3,0 °C 2,8 °C -1,7 °C 92 % 997,7 hPa 0,0 l/m² 0 min 0 min 63 W/m² 19,3 km/h (3 Bft) 95,83 %
03.02.2026 16:06 3,0 °C 2,8 °C -1,7 °C 92 % 997,7 hPa 0,0 l/m² 0 min 0 min 62 W/m² 19,3 km/h (3 Bft) 98,28 %
03.02.2026 16:08 3,0 °C 2,8 °C -1,7 °C 92 % 997,7 hPa 0,0 l/m² 0 min 0 min 60 W/m² 25,7 km/h (4 Bft) 94,29 %
03.02.2026 16:10 3,0 °C 2,8 °C -1,7 °C 92 % 997,7 hPa 0,0 l/m² 0 min 0 min 61 W/m² 22,5 km/h (4 Bft) 97,87 %
03.02.2026 16:12 3,0 °C 2,8 °C -1,7 °C 92 % 997,7 hPa 0,0 l/m² 0 min 0 min 61 W/m² 25,7 km/h (4 Bft) 97,87 %
03.02.2026 16:14 3,0 °C 2,8 °C -1,7 °C 92 % 997,6 hPa 0,0 l/m² 0 min 0 min 62 W/m² 25,7 km/h (4 Bft) 97,87 %
03.02.2026 16:16 2,9 °C 2,8 °C -1,7 °C 92 % 997,7 hPa 0,0 l/m² 0 min 0 min 58 W/m² 16,1 km/h (3 Bft) 47,37 %
03.02.2026 16:18 2,9 °C 2,8 °C -1,7 °C 92 % 997,7 hPa 0,0 l/m² 0 min 0 min 54 W/m² 16,1 km/h (3 Bft) 100,00 %
03.02.2026 16:20 2,9 °C 2,8 °C -1,7 °C 93 % 997,7 hPa 0,0 l/m² 0 min 0 min 49 W/m² 19,3 km/h (3 Bft) 97,83 %
03.02.2026 16:22 2,9 °C 2,8 °C -1,7 °C 93 % 997,7 hPa 0,0 l/m² 0 min 0 min 49 W/m² 22,5 km/h (4 Bft) 100,00 %
03.02.2026 16:24 3,0 °C 2,8 °C -1,7 °C 93 % 997,7 hPa 0,0 l/m² 0 min 0 min 46 W/m² 29,0 km/h (5 Bft) 100,00 %
03.02.2026 16:26 2,9 °C 2,8 °C -1,7 °C 93 % 997,7 hPa 0,0 l/m² 0 min 0 min 45 W/m² 16,1 km/h (3 Bft) 97,87 %
03.02.2026 16:28 2,9 °C 2,8 °C -1,7 °C 93 % 997,7 hPa 0,0 l/m² 0 min 0 min 43 W/m² 19,3 km/h (3 Bft) 100,00 %
03.02.2026 16:30 3,0 °C 2,8 °C -1,7 °C 93 % 997,7 hPa 0,0 l/m² 0 min 0 min 39 W/m² 25,7 km/h (4 Bft) 96,00 %
03.02.2026 16:32 3,0 °C 2,2 °C -1,7 °C 93 % 997,7 hPa 0,0 l/m² 0 min 0 min 36 W/m² 22,5 km/h (4 Bft) 97,83 %
03.02.2026 16:34 2,9 °C 2,2 °C -1,7 °C 93 % 997,7 hPa 0,0 l/m² 0 min 0 min 30 W/m² 12,9 km/h (3 Bft) 100,00 %
03.02.2026 16:36 2,9 °C 2,2 °C -1,7 °C 93 % 997,7 hPa 0,0 l/m² 0 min 0 min 27 W/m² 19,3 km/h (3 Bft) 100,00 %
03.02.2026 16:38 2,9 °C 2,2 °C -1,7 °C 93 % 997,7 hPa 0,0 l/m² 0 min 0 min 25 W/m² 16,1 km/h (3 Bft) 97,87 %
03.02.2026 16:40 2,9 °C 2,2 °C -1,7 °C 93 % 997,6 hPa 0,0 l/m² 0 min 0 min 24 W/m² 22,5 km/h (4 Bft) 97,87 %
03.02.2026 16:42 3,0 °C 2,2 °C -1,7 °C 93 % 997,7 hPa 0,0 l/m² 0 min 0 min 26 W/m² 25,7 km/h (4 Bft) 95,65 %
03.02.2026 16:44 3,0 °C 2,2 °C -1,7 °C 93 % 997,6 hPa 0,0 l/m² 0 min 0 min 24 W/m² 22,5 km/h (4 Bft) 93,62 %
03.02.2026 16:46 2,9 °C 2,2 °C -1,7 °C 93 % 997,6 hPa 0,0 l/m² 0 min 0 min 21 W/m² 22,5 km/h (4 Bft) 95,74 %
03.02.2026 16:48 2,9 °C 2,2 °C -1,7 °C 93 % 997,6 hPa 0,0 l/m² 0 min 0 min 20 W/m² 22,5 km/h (4 Bft) 95,74 %
03.02.2026 16:50 2,9 °C 2,2 °C -1,7 °C 93 % 997,6 hPa 0,0 l/m² 0 min 0 min 20 W/m² 12,9 km/h (3 Bft) 95,74 %
03.02.2026 16:52 2,9 °C 2,2 °C -1,7 °C 93 % 997,6 hPa 0,0 l/m² 0 min 0 min 16 W/m² 19,3 km/h (3 Bft) 95,74 %
03.02.2026 16:54 2,9 °C 2,2 °C -1,7 °C 93 % 997,6 hPa 0,0 l/m² 0 min 0 min 13 W/m² 25,7 km/h (4 Bft) 95,65 %
03.02.2026 16:56 2,9 °C 2,2 °C -1,7 °C 93 % 997,7 hPa 0,0 l/m² 0 min 0 min 10 W/m² 22,5 km/h (4 Bft) 95,74 %
03.02.2026 16:58 3,0 °C 2,2 °C -1,7 °C 93 % 997,7 hPa 0,0 l/m² 0 min 0 min 7 W/m² 22,5 km/h (4 Bft) 95,74 %
03.02.2026 17:00 2,9 °C 2,8 °C -1,7 °C 93 % 997,6 hPa 0,0 l/m² 0 min 0 min 7 W/m² 16,1 km/h (3 Bft) 95,74 %
03.02.2026 17:02 3,0 °C 2,8 °C -1,7 °C 93 % 997,7 hPa 0,0 l/m² 0 min 0 min 7 W/m² 22,5 km/h (4 Bft) 93,62 %
03.02.2026 17:04 3,0 °C 2,8 °C -1,7 °C 93 % 997,6 hPa 0,0 l/m² 0 min 0 min 5 W/m² 19,3 km/h (3 Bft) 95,83 %
03.02.2026 17:06 3,0 °C 2,8 °C -1,7 °C 93 % 997,6 hPa 0,0 l/m² 0 min 0 min 2 W/m² 22,5 km/h (4 Bft) 92,45 %
03.02.2026 17:08 3,0 °C 2,8 °C -1,7 °C 93 % 997,6 hPa 0,0 l/m² 0 min 0 min 0 W/m² 32,2 km/h (5 Bft) 95,00 %
03.02.2026 17:10 3,0 °C 2,8 °C -1,7 °C 94 % 997,5 hPa 0,0 l/m² 0 min 0 min 0 W/m² 25,7 km/h (4 Bft) 95,74 %
03.02.2026 17:12 3,0 °C 2,8 °C -1,7 °C 94 % 997,5 hPa 0,0 l/m² 0 min 0 min 0 W/m² 25,7 km/h (4 Bft) 93,62 %
03.02.2026 17:14 3,0 °C 2,8 °C -1,7 °C 94 % 997,6 hPa 0,0 l/m² 0 min 0 min 0 W/m² 22,5 km/h (4 Bft) 95,74 %
03.02.2026 17:16 3,0 °C 2,8 °C -1,7 °C 94 % 997,5 hPa 0,0 l/m² 0 min 0 min 0 W/m² 29,0 km/h (5 Bft) 95,74 %
03.02.2026 17:18 3,1 °C 2,8 °C -1,7 °C 94 % 997,6 hPa 0,0 l/m² 0 min 0 min 0 W/m² 22,5 km/h (4 Bft) 93,48 %
03.02.2026 17:20 3,1 °C 2,8 °C -1,7 °C 94 % 997,5 hPa 0,0 l/m² 0 min 0 min 0 W/m² 41,8 km/h (6 Bft) 97,87 %
03.02.2026 17:22 3,1 °C 2,8 °C -1,7 °C 94 % 997,5 hPa 0,0 l/m² 0 min 0 min 0 W/m² 29,0 km/h (5 Bft) 97,14 %
03.02.2026 17:24 3,1 °C 2,8 °C -1,7 °C 94 % 997,5 hPa 0,0 l/m² 0 min 0 min 0 W/m² 19,3 km/h (3 Bft) 100,00 %
03.02.2026 17:26 3,1 °C 2,8 °C -1,7 °C 94 % 997,6 hPa 0,0 l/m² 0 min 0 min 0 W/m² 25,7 km/h (4 Bft) 100,00 %
03.02.2026 17:28 3,1 °C 2,8 °C -1,7 °C 94 % 997,6 hPa 0,0 l/m² 0 min 0 min 0 W/m² 25,7 km/h (4 Bft) 100,00 %
03.02.2026 17:30 3,1 °C 2,8 °C -1,7 °C 94 % 997,5 hPa 0,0 l/m² 0 min 0 min 0 W/m² 22,5 km/h (4 Bft) 97,87 %
03.02.2026 17:32 3,1 °C 2,8 °C -1,7 °C 94 % 997,6 hPa 0,0 l/m² 0 min 0 min 0 W/m² 19,3 km/h (3 Bft) 100,00 %
03.02.2026 17:34 3,1 °C 2,8 °C -1,1 °C 94 % 997,6 hPa 0,0 l/m² 0 min 0 min 0 W/m² 25,7 km/h (4 Bft) 100,00 %
03.02.2026 17:36 3,1 °C 2,8 °C -1,1 °C 94 % 997,6 hPa 0,0 l/m² 0 min 0 min 0 W/m² 29,0 km/h (5 Bft) 97,87 %
03.02.2026 17:38 3,1 °C 2,8 °C -1,1 °C 93 % 997,6 hPa 0,0 l/m² 0 min 0 min 0 W/m² 22,5 km/h (4 Bft) 100,00 %
03.02.2026 17:40 3,1 °C 2,8 °C -1,1 °C 93 % 997,5 hPa 0,0 l/m² 0 min 0 min 0 W/m² 19,3 km/h (3 Bft) 100,00 %
03.02.2026 17:42 3,2 °C 2,8 °C -1,1 °C 93 % 997,5 hPa 0,0 l/m² 0 min 0 min 0 W/m² 29,0 km/h (5 Bft) 100,00 %
03.02.2026 17:44 3,2 °C 2,8 °C -1,1 °C 93 % 997,5 hPa 0,0 l/m² 0 min 0 min 0 W/m² 22,5 km/h (4 Bft) 100,00 %
03.02.2026 17:46 3,2 °C 2,8 °C -1,1 °C 93 % 997,6 hPa 0,0 l/m² 0 min 0 min 0 W/m² 25,7 km/h (4 Bft) 100,00 %
03.02.2026 17:48 3,2 °C 2,8 °C -1,1 °C 93 % 997,6 hPa 0,0 l/m² 0 min 0 min 0 W/m² 25,7 km/h (4 Bft) 100,00 %
03.02.2026 17:50 3,2 °C 2,8 °C -1,1 °C 93 % 997,5 hPa 0,0 l/m² 0 min 0 min 0 W/m² 22,5 km/h (4 Bft) 95,74 %
03.02.2026 17:52 3,2 °C 2,8 °C -1,1 °C 93 % 997,5 hPa 0,0 l/m² 0 min 0 min 0 W/m² 29,0 km/h (5 Bft) 100,00 %
03.02.2026 17:54 3,2 °C 2,8 °C -1,1 °C 93 % 997,7 hPa 0,0 l/m² 0 min 0 min 0 W/m² 25,7 km/h (4 Bft) 100,00 %
03.02.2026 17:56 3,2 °C 2,8 °C -1,1 °C 93 % 997,6 hPa 0,0 l/m² 0 min 0 min 0 W/m² 25,7 km/h (4 Bft) 100,00 %
03.02.2026 17:58 3,2 °C 2,8 °C -1,1 °C 93 % 997,6 hPa 0,0 l/m² 0 min 0 min 0 W/m² 29,0 km/h (5 Bft) 100,00 %
03.02.2026 18:00 3,2 °C 2,8 °C -1,1 °C 93 % 997,6 hPa 0,0 l/m² 0 min 0 min 0 W/m² 25,7 km/h (4 Bft) 100,00 %
03.02.2026 18:02 3,3 °C 2,8 °C -0,6 °C 93 % 997,7 hPa 0,0 l/m² 0 min 0 min 0 W/m² 32,2 km/h (5 Bft) 97,87 %
03.02.2026 18:04 3,3 °C 2,8 °C -0,6 °C 93 % 997,7 hPa 0,0 l/m² 0 min 0 min 0 W/m² 35,4 km/h (5 Bft) 97,92 %
03.02.2026 18:07 3,3 °C 2,8 °C -0,6 °C 93 % 997,7 hPa 0,0 l/m² 0 min 0 min 0 W/m² 25,7 km/h (4 Bft) 100,00 %
03.02.2026 18:08 3,3 °C 2,8 °C -0,6 °C 93 % 997,7 hPa 0,0 l/m² 0 min 0 min 0 W/m² 19,3 km/h (3 Bft) 100,00 %
03.02.2026 18:12 3,3 °C 2,8 °C -0,6 °C 93 % 997,5 hPa 0,0 l/m² 0 min 0 min 0 W/m² 22,5 km/h (4 Bft) 100,00 %
03.02.2026 18:14 3,3 °C 2,8 °C -0,6 °C 93 % 997,7 hPa 0,0 l/m² 0 min 0 min 0 W/m² 29,0 km/h (5 Bft) 97,87 %
03.02.2026 18:16 3,3 °C 2,8 °C -0,6 °C 93 % 997,6 hPa 0,0 l/m² 0 min 0 min 0 W/m² 29,0 km/h (5 Bft) 100,00 %
03.02.2026 18:18 3,3 °C 2,8 °C -0,6 °C 93 % 997,5 hPa 0,0 l/m² 0 min 0 min 0 W/m² 29,0 km/h (5 Bft) 97,87 %
03.02.2026 18:20 3,3 °C 2,8 °C -0,6 °C 93 % 997,6 hPa 0,0 l/m² 0 min 0 min 0 W/m² 25,7 km/h (4 Bft) 100,00 %
03.02.2026 18:22 3,3 °C 2,8 °C -0,6 °C 93 % 997,6 hPa 0,0 l/m² 0 min 0 min 0 W/m² 32,2 km/h (5 Bft) 97,87 %
03.02.2026 18:24 3,3 °C 2,8 °C -0,6 °C 93 % 997,6 hPa 0,0 l/m² 0 min 0 min 0 W/m² 22,5 km/h (4 Bft) 97,83 %
03.02.2026 18:26 3,3 °C 2,8 °C -0,6 °C 93 % 997,6 hPa 0,0 l/m² 0 min 0 min 0 W/m² 25,7 km/h (4 Bft) 95,74 %
03.02.2026 18:28 3,3 °C 2,8 °C -0,6 °C 93 % 997,6 hPa 0,0 l/m² 0 min 0 min 0 W/m² 41,8 km/h (6 Bft) 95,74 %
03.02.2026 18:30 3,3 °C 2,8 °C -0,6 °C 93 % 997,6 hPa 0,0 l/m² 0 min 0 min 0 W/m² 25,7 km/h (4 Bft) 97,87 %
03.02.2026 18:32 3,3 °C 2,8 °C -0,6 °C 93 % 997,6 hPa 0,0 l/m² 0 min 0 min 0 W/m² 22,5 km/h (4 Bft) 97,87 %
03.02.2026 18:34 3,3 °C 2,8 °C -0,6 °C 93 % 997,7 hPa 0,0 l/m² 0 min 0 min 0 W/m² 16,1 km/h (3 Bft) 97,87 %
03.02.2026 18:36 3,3 °C 2,8 °C -0,6 °C 93 % 997,7 hPa 0,0 l/m² 0 min 0 min 0 W/m² 32,2 km/h (5 Bft) 97,83 %
03.02.2026 18:38 3,3 °C 2,8 °C -0,6 °C 93 % 997,7 hPa 0,0 l/m² 0 min 0 min 0 W/m² 22,5 km/h (4 Bft) 93,62 %
03.02.2026 18:40 3,3 °C 2,8 °C -0,6 °C 93 % 997,7 hPa 0,0 l/m² 0 min 0 min 0 W/m² 22,5 km/h (4 Bft) 95,74 %
03.02.2026 18:42 3,3 °C 2,8 °C -0,6 °C 93 % 997,7 hPa 0,0 l/m² 0 min 0 min 0 W/m² 25,7 km/h (4 Bft) 95,74 %
03.02.2026 18:44 3,3 °C 2,8 °C -0,6 °C 92 % 997,7 hPa 0,0 l/m² 0 min 0 min 0 W/m² 22,5 km/h (4 Bft) 95,74 %
03.02.2026 18:46 3,3 °C 2,8 °C -0,6 °C 92 % 997,7 hPa 0,0 l/m² 0 min 0 min 0 W/m² 25,7 km/h (4 Bft) 95,74 %
03.02.2026 18:48 3,3 °C 2,8 °C -0,6 °C 92 % 997,8 hPa 0,0 l/m² 0 min 0 min 0 W/m² 25,7 km/h (4 Bft) 91,30 %
03.02.2026 18:50 3,3 °C 2,8 °C -0,6 °C 92 % 997,8 hPa 0,0 l/m² 0 min 0 min 0 W/m² 25,7 km/h (4 Bft) 93,62 %
03.02.2026 18:52 3,3 °C 2,8 °C -0,6 °C 92 % 997,9 hPa 0,0 l/m² 0 min 0 min 0 W/m² 22,5 km/h (4 Bft) 93,62 %
03.02.2026 18:54 3,3 °C 2,8 °C -0,6 °C 92 % 997,9 hPa 0,0 l/m² 0 min 0 min 0 W/m² 25,7 km/h (4 Bft) 93,62 %
03.02.2026 18:56 3,3 °C 2,8 °C -0,6 °C 92 % 998,0 hPa 0,0 l/m² 0 min 0 min 0 W/m² 22,5 km/h (4 Bft) 93,62 %
03.02.2026 18:58 3,3 °C 2,8 °C -0,6 °C 92 % 998,0 hPa 0,0 l/m² 0 min 0 min 0 W/m² 25,7 km/h (4 Bft) 93,62 %
03.02.2026 19:00 3,3 °C 2,8 °C -0,6 °C 92 % 998,0 hPa 0,0 l/m² 0 min 0 min 0 W/m² 25,7 km/h (4 Bft) 95,65 %
03.02.2026 19:02 3,3 °C 2,8 °C -0,6 °C 92 % 998,0 hPa 0,0 l/m² 0 min 0 min 0 W/m² 19,3 km/h (3 Bft) 51,22 %
03.02.2026 19:04 3,3 °C 2,8 °C -0,6 °C 92 % 998,0 hPa 0,0 l/m² 0 min 0 min 0 W/m² 32,2 km/h (5 Bft) 91,67 %
03.02.2026 19:06 3,3 °C 2,8 °C -0,6 °C 92 % 998,0 hPa 0,0 l/m² 0 min 0 min 0 W/m² 29,0 km/h (5 Bft) 93,62 %
03.02.2026 19:08 3,3 °C 2,8 °C -0,6 °C 92 % 998,1 hPa 0,0 l/m² 0 min 0 min 0 W/m² 25,7 km/h (4 Bft) 91,67 %
03.02.2026 19:10 3,3 °C 2,8 °C -0,6 °C 92 % 998,1 hPa 0,0 l/m² 0 min 0 min 0 W/m² 32,2 km/h (5 Bft) 93,75 %
03.02.2026 19:12 3,3 °C 2,8 °C -0,6 °C 92 % 998,1 hPa 0,0 l/m² 0 min 0 min 0 W/m² 29,0 km/h (5 Bft) 89,13 %
03.02.2026 19:14 3,3 °C 2,8 °C -0,6 °C 92 % 998,0 hPa 0,0 l/m² 0 min 0 min 0 W/m² 22,5 km/h (4 Bft) 95,74 %
03.02.2026 19:16 3,3 °C 2,8 °C -0,6 °C 92 % 998,1 hPa 0,0 l/m² 0 min 0 min 0 W/m² 29,0 km/h (5 Bft) 97,87 %
03.02.2026 19:18 3,3 °C 2,8 °C -0,6 °C 92 % 998,1 hPa 0,0 l/m² 0 min 0 min 0 W/m² 19,3 km/h (3 Bft) 97,87 %
03.02.2026 19:20 3,3 °C 2,8 °C -0,6 °C 92 % 998,2 hPa 0,0 l/m² 0 min 0 min 0 W/m² 29,0 km/h (5 Bft) 97,14 %
03.02.2026 19:22 3,3 °C 2,8 °C -0,6 °C 92 % 998,2 hPa 0,0 l/m² 0 min 0 min 0 W/m² 29,0 km/h (5 Bft) 97,87 %
03.02.2026 19:24 3,3 °C 2,8 °C -0,6 °C 92 % 998,2 hPa 0,0 l/m² 0 min 0 min 0 W/m² 19,3 km/h (3 Bft) 97,87 %
03.02.2026 19:26 3,3 °C 2,8 °C -0,6 °C 92 % 998,2 hPa 0,0 l/m² 0 min 0 min 0 W/m² 22,5 km/h (4 Bft) 97,87 %
03.02.2026 19:28 3,3 °C 2,8 °C -0,6 °C 92 % 998,2 hPa 0,0 l/m² 0 min 0 min 0 W/m² 22,5 km/h (4 Bft) 95,65 %
03.02.2026 19:30 3,3 °C 2,8 °C -0,6 °C 92 % 998,3 hPa 0,0 l/m² 0 min 0 min 0 W/m² 22,5 km/h (4 Bft) 97,87 %
03.02.2026 19:32 3,3 °C 2,8 °C -0,6 °C 92 % 998,2 hPa 0,0 l/m² 0 min 0 min 0 W/m² 25,7 km/h (4 Bft) 95,74 %
03.02.2026 19:34 3,2 °C 2,8 °C -0,6 °C 92 % 998,3 hPa 0,0 l/m² 0 min 0 min 0 W/m² 32,2 km/h (5 Bft) 97,87 %
03.02.2026 19:36 3,3 °C 2,8 °C -0,6 °C 92 % 998,2 hPa 0,0 l/m² 0 min 0 min 0 W/m² 22,5 km/h (4 Bft) 95,74 %
03.02.2026 19:38 3,2 °C 2,8 °C -0,6 °C 92 % 998,3 hPa 0,0 l/m² 0 min 0 min 0 W/m² 25,7 km/h (4 Bft) 97,87 %
03.02.2026 19:40 3,3 °C 2,8 °C -0,6 °C 92 % 998,2 hPa 0,0 l/m² 0 min 0 min 0 W/m² 25,7 km/h (4 Bft) 97,83 %
03.02.2026 19:42 3,2 °C 2,8 °C -0,6 °C 92 % 998,3 hPa 0,0 l/m² 0 min 0 min 0 W/m² 22,5 km/h (4 Bft) 97,87 %
03.02.2026 19:44 3,2 °C 2,8 °C -0,6 °C 92 % 998,3 hPa 0,0 l/m² 0 min 0 min 0 W/m² 29,0 km/h (5 Bft) 95,74 %
03.02.2026 19:46 3,2 °C 2,8 °C -0,6 °C 92 % 998,3 hPa 0,0 l/m² 0 min 0 min 0 W/m² 35,4 km/h (5 Bft) 95,74 %
03.02.2026 19:48 3,3 °C 2,8 °C -0,6 °C 92 % 998,3 hPa 0,0 l/m² 0 min 0 min 0 W/m² 32,2 km/h (5 Bft) 100,00 %
03.02.2026 19:50 3,3 °C 2,8 °C -0,6 °C 92 % 998,3 hPa 0,0 l/m² 0 min 0 min 0 W/m² 25,7 km/h (4 Bft) 97,87 %
03.02.2026 19:52 3,3 °C 2,8 °C -0,6 °C 92 % 998,3 hPa 0,0 l/m² 0 min 0 min 0 W/m² 25,7 km/h (4 Bft) 100,00 %
03.02.2026 19:54 3,3 °C 2,8 °C -0,6 °C 92 % 998,3 hPa 0,0 l/m² 0 min 0 min 0 W/m² 29,0 km/h (5 Bft) 100,00 %
03.02.2026 19:56 3,3 °C 2,8 °C -0,6 °C 92 % 998,4 hPa 0,0 l/m² 0 min 0 min 0 W/m² 29,0 km/h (5 Bft) 100,00 %
03.02.2026 19:58 3,3 °C 2,8 °C -0,6 °C 92 % 998,3 hPa 0,0 l/m² 0 min 0 min 0 W/m² 16,1 km/h (3 Bft) 80,85 %
03.02.2026 20:00 3,3 °C 2,8 °C -0,6 °C 92 % 998,4 hPa 0,0 l/m² 0 min 0 min 0 W/m² 22,5 km/h (4 Bft) 26,67 %
03.02.2026 20:02 3,3 °C 2,8 °C -0,6 °C 92 % 998,3 hPa 0,0 l/m² 0 min 0 min 0 W/m² 25,7 km/h (4 Bft) 100,00 %
03.02.2026 20:04 3,3 °C 2,8 °C -0,6 °C 92 % 998,3 hPa 0,0 l/m² 0 min 0 min 0 W/m² 22,5 km/h (4 Bft) 97,92 %
03.02.2026 20:06 3,3 °C 2,8 °C -0,6 °C 92 % 998,4 hPa 0,0 l/m² 0 min 0 min 0 W/m² 22,5 km/h (4 Bft) 96,61 %
03.02.2026 20:08 3,3 °C 2,8 °C -0,6 °C 92 % 998,4 hPa 0,0 l/m² 0 min 0 min 0 W/m² 19,3 km/h (3 Bft) 100,00 %
03.02.2026 20:10 3,3 °C 2,8 °C -0,6 °C 92 % 998,4 hPa 0,0 l/m² 0 min 0 min 0 W/m² 32,2 km/h (5 Bft) 100,00 %
03.02.2026 20:12 3,3 °C 2,8 °C -0,6 °C 92 % 998,5 hPa 0,0 l/m² 0 min 0 min 0 W/m² 19,3 km/h (3 Bft) 97,87 %
03.02.2026 20:14 3,3 °C 2,8 °C -0,6 °C 92 % 998,4 hPa 0,0 l/m² 0 min 0 min 0 W/m² 19,3 km/h (3 Bft) 97,87 %
03.02.2026 20:16 3,3 °C 2,8 °C -0,6 °C 92 % 998,5 hPa 0,0 l/m² 0 min 0 min 0 W/m² 19,3 km/h (3 Bft) 100,00 %
03.02.2026 20:18 3,3 °C 2,8 °C -0,6 °C 92 % 998,4 hPa 0,0 l/m² 0 min 0 min 0 W/m² 29,0 km/h (5 Bft) 100,00 %
03.02.2026 20:20 3,3 °C 2,8 °C -0,6 °C 92 % 998,5 hPa 0,0 l/m² 0 min 0 min 0 W/m² 22,5 km/h (4 Bft) 100,00 %
03.02.2026 20:22 3,3 °C 2,8 °C -1,1 °C 92 % 998,5 hPa 0,0 l/m² 0 min 2 min 0 W/m² 32,2 km/h (5 Bft) 100,00 %
03.02.2026 20:24 3,3 °C 2,8 °C -1,1 °C 92 % 998,5 hPa 0,0 l/m² 0 min 0 min 0 W/m² 25,7 km/h (4 Bft) 97,87 %
03.02.2026 20:26 3,3 °C 2,8 °C -1,1 °C 92 % 998,5 hPa 0,0 l/m² 0 min 0 min 0 W/m² 19,3 km/h (3 Bft) 100,00 %
03.02.2026 20:28 3,3 °C 2,8 °C -1,1 °C 92 % 998,5 hPa 0,0 l/m² 0 min 0 min 0 W/m² 19,3 km/h (3 Bft) 100,00 %
03.02.2026 20:30 3,3 °C 2,8 °C -1,1 °C 93 % 998,5 hPa 0,0 l/m² 0 min 0 min 0 W/m² 22,5 km/h (4 Bft) 100,00 %
03.02.2026 20:32 3,3 °C 2,8 °C -1,1 °C 93 % 998,6 hPa 0,0 l/m² 0 min 0 min 0 W/m² 19,3 km/h (3 Bft) 97,83 %
03.02.2026 20:34 3,3 °C 2,8 °C -1,1 °C 93 % 998,6 hPa 0,0 l/m² 0 min 0 min 0 W/m² 19,3 km/h (3 Bft) 97,87 %
03.02.2026 20:36 3,3 °C 2,8 °C -1,1 °C 93 % 998,6 hPa 0,0 l/m² 0 min 0 min 0 W/m² 19,3 km/h (3 Bft) 91,30 %
03.02.2026 20:38 3,3 °C 2,8 °C -1,1 °C 93 % 998,7 hPa 0,0 l/m² 0 min 0 min 0 W/m² 16,1 km/h (3 Bft) 100,00 %
03.02.2026 20:40 3,3 °C 2,8 °C -1,1 °C 93 % 998,7 hPa 0,0 l/m² 0 min 0 min 0 W/m² 25,7 km/h (4 Bft) 97,87 %
03.02.2026 20:42 3,3 °C 2,8 °C -1,1 °C 93 % 998,7 hPa 0,0 l/m² 0 min 0 min 0 W/m² 19,3 km/h (3 Bft) 97,87 %
03.02.2026 20:44 3,3 °C 2,8 °C -1,1 °C 93 % 998,7 hPa 0,0 l/m² 0 min 0 min 0 W/m² 19,3 km/h (3 Bft) 97,87 %
03.02.2026 20:46 3,3 °C 2,8 °C -1,1 °C 93 % 998,8 hPa 0,0 l/m² 0 min 0 min 0 W/m² 16,1 km/h (3 Bft) 97,83 %
03.02.2026 20:48 3,3 °C 2,8 °C -1,1 °C 93 % 998,8 hPa 0,0 l/m² 0 min 0 min 0 W/m² 25,7 km/h (4 Bft) 97,87 %
03.02.2026 20:50 3,3 °C 2,8 °C -1,1 °C 93 % 998,8 hPa 0,0 l/m² 0 min 0 min 0 W/m² 19,3 km/h (3 Bft) 97,87 %
03.02.2026 20:52 3,3 °C 2,8 °C -1,1 °C 93 % 998,8 hPa 0,0 l/m² 0 min 0 min 0 W/m² 16,1 km/h (3 Bft) 97,87 %
03.02.2026 20:54 3,3 °C 2,8 °C -1,1 °C 93 % 998,8 hPa 0,0 l/m² 0 min 2 min 0 W/m² 16,1 km/h (3 Bft) 95,74 %
03.02.2026 20:56 3,3 °C 2,8 °C -1,1 °C 93 % 998,8 hPa 0,2 l/m² 0 min 2 min 0 W/m² 19,3 km/h (3 Bft) 100,00 %
03.02.2026 20:58 3,3 °C 2,8 °C -1,1 °C 93 % 998,9 hPa 0,0 l/m² 0 min 2 min 0 W/m² 19,3 km/h (3 Bft) 100,00 %
03.02.2026 21:00 3,3 °C 2,8 °C -1,1 °C 93 % 999,0 hPa 0,0 l/m² 0 min 2 min 0 W/m² 19,3 km/h (3 Bft) 97,87 %
03.02.2026 21:02 3,3 °C 2,2 °C -1,1 °C 93 % 999,0 hPa 0,0 l/m² 0 min 2 min 0 W/m² 22,5 km/h (4 Bft) 97,87 %
03.02.2026 21:04 3,3 °C 2,2 °C -1,1 °C 94 % 998,9 hPa 0,0 l/m² 0 min 2 min 0 W/m² 16,1 km/h (3 Bft) 97,87 %
03.02.2026 21:06 3,3 °C 2,2 °C -1,1 °C 94 % 999,0 hPa 0,0 l/m² 0 min 0 min 0 W/m² 22,5 km/h (4 Bft) 97,87 %
03.02.2026 21:08 3,3 °C 2,2 °C -1,1 °C 94 % 999,0 hPa 0,0 l/m² 0 min 0 min 0 W/m² 29,0 km/h (5 Bft) 100,00 %
03.02.2026 21:10 3,3 °C 2,2 °C -1,1 °C 94 % 999,0 hPa 0,2 l/m² 0 min 0 min 0 W/m² 22,5 km/h (4 Bft) 100,00 %
03.02.2026 21:12 3,3 °C 2,2 °C -1,1 °C 94 % 999,0 hPa 0,0 l/m² 0 min 2 min 0 W/m² 25,7 km/h (4 Bft) 100,00 %
03.02.2026 21:14 3,3 °C 2,2 °C -1,1 °C 94 % 999,0 hPa 0,0 l/m² 0 min 0 min 0 W/m² 22,5 km/h (4 Bft) 97,87 %
03.02.2026 21:16 3,3 °C 2,2 °C -1,1 °C 94 % 999,1 hPa 0,0 l/m² 0 min 0 min 0 W/m² 19,3 km/h (3 Bft) 97,87 %
03.02.2026 21:18 3,3 °C 2,2 °C -1,1 °C 94 % 999,1 hPa 0,0 l/m² 0 min 0 min 0 W/m² 19,3 km/h (3 Bft) 97,87 %
03.02.2026 21:20 3,3 °C 2,2 °C -1,1 °C 94 % 999,1 hPa 0,0 l/m² 0 min 0 min 0 W/m² 16,1 km/h (3 Bft) 100,00 %
03.02.2026 21:22 3,3 °C 2,2 °C -1,1 °C 94 % 999,1 hPa 0,0 l/m² 0 min 0 min 0 W/m² 22,5 km/h (4 Bft) 95,74 %
03.02.2026 21:24 3,3 °C 2,2 °C -1,1 °C 94 % 999,1 hPa 0,0 l/m² 0 min 0 min 0 W/m² 19,3 km/h (3 Bft) 97,87 %
03.02.2026 21:26 3,3 °C 2,2 °C -1,1 °C 95 % 999,1 hPa 0,0 l/m² 0 min 0 min 0 W/m² 16,1 km/h (3 Bft) 97,87 %
03.02.2026 21:28 3,3 °C 2,2 °C -1,1 °C 95 % 999,1 hPa 0,0 l/m² 0 min 0 min 0 W/m² 19,3 km/h (3 Bft) 97,87 %
03.02.2026 21:30 3,2 °C 2,2 °C -1,1 °C 94 % 999,1 hPa 0,0 l/m² 0 min 0 min 0 W/m² 19,3 km/h (3 Bft) 97,87 %
03.02.2026 21:32 3,2 °C 2,2 °C -1,1 °C 95 % 999,1 hPa 0,0 l/m² 0 min 2 min 0 W/m² 16,1 km/h (3 Bft) 93,48 %
03.02.2026 21:34 3,2 °C 2,2 °C -1,1 °C 95 % 999,1 hPa 0,2 l/m² 0 min 2 min 0 W/m² 19,3 km/h (3 Bft) 95,74 %
03.02.2026 21:36 3,2 °C 2,2 °C -1,1 °C 95 % 999,1 hPa 0,2 l/m² 0 min 2 min 0 W/m² 19,3 km/h (3 Bft) 95,74 %
03.02.2026 21:38 3,2 °C 2,2 °C -1,1 °C 95 % 999,1 hPa 0,0 l/m² 0 min 2 min 0 W/m² 19,3 km/h (3 Bft) 93,62 %
03.02.2026 21:40 3,2 °C 2,2 °C -1,1 °C 95 % 999,1 hPa 0,0 l/m² 0 min 0 min 0 W/m² 19,3 km/h (3 Bft) 95,83 %
03.02.2026 21:42 3,2 °C 2,2 °C -1,1 °C 95 % 999,1 hPa 0,0 l/m² 0 min 0 min 0 W/m² 16,1 km/h (3 Bft) 91,30 %
03.02.2026 21:44 3,2 °C 2,2 °C -1,1 °C 95 % 999,2 hPa 0,0 l/m² 0 min 0 min 0 W/m² 12,9 km/h (3 Bft) 95,74 %
03.02.2026 21:46 3,2 °C 2,2 °C -1,1 °C 95 % 999,1 hPa 0,0 l/m² 0 min 0 min 0 W/m² 25,7 km/h (4 Bft) 95,74 %
03.02.2026 21:48 3,2 °C 2,2 °C -1,1 °C 95 % 999,2 hPa 0,0 l/m² 0 min 0 min 0 W/m² 9,7 km/h (2 Bft) 91,49 %
03.02.2026 21:50 3,2 °C 2,2 °C -1,1 °C 95 % 999,2 hPa 0,0 l/m² 0 min 0 min 0 W/m² 16,1 km/h (3 Bft) 95,74 %
03.02.2026 21:52 3,2 °C 2,2 °C -1,1 °C 95 % 999,3 hPa 0,0 l/m² 0 min 0 min 0 W/m² 16,1 km/h (3 Bft) 95,74 %
03.02.2026 21:54 3,3 °C 2,2 °C -1,1 °C 95 % 999,2 hPa 0,0 l/m² 0 min 0 min 0 W/m² 12,9 km/h (3 Bft) 95,65 %
03.02.2026 21:56 3,3 °C 2,2 °C -1,1 °C 95 % 999,2 hPa 0,0 l/m² 0 min 2 min 0 W/m² 16,1 km/h (3 Bft) 89,36 %
03.02.2026 21:58 3,3 °C 2,8 °C -1,1 °C 96 % 999,3 hPa 0,2 l/m² 0 min 2 min 0 W/m² 16,1 km/h (3 Bft) 95,74 %
03.02.2026 22:00 3,3 °C 2,8 °C -1,1 °C 96 % 999,2 hPa 0,0 l/m² 0 min 0 min 0 W/m² 19,3 km/h (3 Bft) 95,74 %
03.02.2026 22:02 3,3 °C 2,8 °C -1,1 °C 96 % 999,3 hPa 0,0 l/m² 0 min 0 min 0 W/m² 12,9 km/h (3 Bft) 93,62 %
03.02.2026 22:04 3,3 °C 2,8 °C -1,1 °C 96 % 999,2 hPa 0,0 l/m² 0 min 0 min 0 W/m² 16,1 km/h (3 Bft) 93,62 %
03.02.2026 22:06 3,3 °C 2,8 °C -1,1 °C 96 % 999,2 hPa 0,0 l/m² 0 min 0 min 0 W/m² 16,1 km/h (3 Bft) 93,48 %
03.02.2026 22:08 3,3 °C 2,8 °C -1,1 °C 96 % 999,2 hPa 0,0 l/m² 0 min 0 min 0 W/m² 9,7 km/h (2 Bft) 91,67 %
03.02.2026 22:10 3,3 °C 2,8 °C -1,1 °C 96 % 999,3 hPa 0,0 l/m² 0 min 0 min 0 W/m² 16,1 km/h (3 Bft) 93,62 %
03.02.2026 22:12 3,3 °C 2,8 °C -1,1 °C 96 % 999,2 hPa 0,0 l/m² 0 min 2 min 0 W/m² 12,9 km/h (3 Bft) 97,87 %
03.02.2026 22:14 3,3 °C 2,8 °C -1,1 °C 96 % 999,2 hPa 0,2 l/m² 0 min 0 min 0 W/m² 16,1 km/h (3 Bft) 100,00 %
03.02.2026 22:16 3,3 °C 2,8 °C -1,1 °C 96 % 999,2 hPa 0,0 l/m² 0 min 2 min 0 W/m² 12,9 km/h (3 Bft) 97,87 %
03.02.2026 22:18 3,3 °C 2,8 °C -1,1 °C 96 % 999,2 hPa 0,0 l/m² 0 min 0 min 0 W/m² 16,1 km/h (3 Bft) 100,00 %
03.02.2026 22:20 3,3 °C 2,8 °C -1,1 °C 96 % 999,2 hPa 0,0 l/m² 0 min 0 min 0 W/m² 19,3 km/h (3 Bft) 100,00 %
03.02.2026 22:22 3,3 °C 2,8 °C -1,1 °C 96 % 999,2 hPa 0,0 l/m² 0 min 0 min 0 W/m² 9,7 km/h (2 Bft) 100,00 %
03.02.2026 22:24 3,3 °C 2,8 °C -1,1 °C 96 % 999,3 hPa 0,0 l/m² 0 min 0 min 0 W/m² 19,3 km/h (3 Bft) 100,00 %
03.02.2026 22:26 3,3 °C 2,2 °C -1,1 °C 96 % 999,3 hPa 0,0 l/m² 0 min 0 min 0 W/m² 12,9 km/h (3 Bft) 95,74 %
03.02.2026 22:28 3,3 °C 2,2 °C -1,1 °C 96 % 999,3 hPa 0,0 l/m² 0 min 0 min 0 W/m² 16,1 km/h (3 Bft) 97,83 %
03.02.2026 22:30 3,3 °C 2,2 °C -1,1 °C 96 % 999,3 hPa 0,0 l/m² 0 min 0 min 0 W/m² 16,1 km/h (3 Bft) 95,74 %
03.02.2026 22:32 3,3 °C 2,2 °C -1,1 °C 96 % 999,3 hPa 0,0 l/m² 0 min 0 min 0 W/m² 19,3 km/h (3 Bft) 97,87 %
03.02.2026 22:34 3,3 °C 2,2 °C -1,1 °C 96 % 999,4 hPa 0,0 l/m² 0 min 0 min 0 W/m² 22,5 km/h (4 Bft) 96,00 %
03.02.2026 22:36 3,3 °C 2,2 °C -1,1 °C 96 % 999,3 hPa 0,0 l/m² 0 min 0 min 0 W/m² 19,3 km/h (3 Bft) 95,74 %
03.02.2026 22:38 3,2 °C 2,2 °C -1,1 °C 96 % 999,4 hPa 0,0 l/m² 0 min 0 min 0 W/m² 16,1 km/h (3 Bft) 97,87 %
03.02.2026 22:40 3,2 °C 2,2 °C -1,1 °C 96 % 999,4 hPa 0,0 l/m² 0 min 0 min 0 W/m² 16,1 km/h (3 Bft) 95,65 %
03.02.2026 22:42 3,2 °C 2,2 °C -1,1 °C 96 % 999,4 hPa 0,0 l/m² 0 min 0 min 0 W/m² 19,3 km/h (3 Bft) 97,87 %
03.02.2026 22:44 3,2 °C 2,2 °C -1,1 °C 96 % 999,4 hPa 0,0 l/m² 0 min 0 min 0 W/m² 22,5 km/h (4 Bft) 97,87 %
03.02.2026 22:46 3,2 °C 2,2 °C -1,1 °C 96 % 999,4 hPa 0,0 l/m² 0 min 0 min 0 W/m² 22,5 km/h (4 Bft) 97,87 %
03.02.2026 22:48 3,2 °C 2,2 °C -1,1 °C 96 % 999,4 hPa 0,0 l/m² 0 min 0 min 0 W/m² 12,9 km/h (3 Bft) 97,87 %
03.02.2026 22:50 3,2 °C 2,2 °C -1,1 °C 96 % 999,4 hPa 0,0 l/m² 0 min 0 min 0 W/m² 19,3 km/h (3 Bft) 95,74 %
03.02.2026 22:52 3,2 °C 2,2 °C -1,1 °C 96 % 999,4 hPa 0,0 l/m² 0 min 0 min 0 W/m² 16,1 km/h (3 Bft) 97,83 %
03.02.2026 22:54 3,1 °C 2,2 °C -1,1 °C 96 % 999,4 hPa 0,0 l/m² 0 min 0 min 0 W/m² 19,3 km/h (3 Bft) 97,87 %
03.02.2026 22:56 3,2 °C 2,2 °C -1,1 °C 96 % 999,4 hPa 0,0 l/m² 0 min 0 min 0 W/m² 16,1 km/h (3 Bft) 97,87 %
03.02.2026 22:58 3,2 °C 2,8 °C -1,1 °C 96 % 999,5 hPa 0,0 l/m² 0 min 0 min 0 W/m² 19,3 km/h (3 Bft) 97,87 %
03.02.2026 23:00 3,1 °C 2,8 °C -1,1 °C 96 % 999,4 hPa 0,0 l/m² 0 min 0 min 0 W/m² 12,9 km/h (3 Bft) 100,00 %
03.02.2026 23:02 3,1 °C 2,8 °C -1,1 °C 96 % 999,4 hPa 0,0 l/m² 0 min 0 min 0 W/m² 16,1 km/h (3 Bft) 100,00 %
03.02.2026 23:04 3,2 °C 2,8 °C -1,1 °C 96 % 999,5 hPa 0,0 l/m² 0 min 0 min 0 W/m² 16,1 km/h (3 Bft) 100,00 %
03.02.2026 23:06 3,2 °C 2,8 °C -1,1 °C 96 % 999,5 hPa 0,0 l/m² 0 min 0 min 0 W/m² 12,9 km/h (3 Bft) 100,00 %
03.02.2026 23:08 3,2 °C 2,8 °C -1,1 °C 96 % 999,4 hPa 0,0 l/m² 0 min 0 min 0 W/m² 19,3 km/h (3 Bft) 100,00 %
03.02.2026 23:10 3,2 °C 2,8 °C -1,1 °C 96 % 999,4 hPa 0,0 l/m² 0 min 0 min 0 W/m² 16,1 km/h (3 Bft) 100,00 %
03.02.2026 23:12 3,2 °C 2,8 °C -1,1 °C 96 % 999,5 hPa 0,0 l/m² 0 min 0 min 0 W/m² 16,1 km/h (3 Bft) 100,00 %
03.02.2026 23:14 3,2 °C 2,8 °C -1,1 °C 96 % 999,5 hPa 0,0 l/m² 0 min 0 min 0 W/m² 12,9 km/h (3 Bft) 100,00 %
03.02.2026 23:16 3,2 °C 2,8 °C -1,1 °C 96 % 999,5 hPa 0,0 l/m² 0 min 0 min 0 W/m² 12,9 km/h (3 Bft) 100,00 %
03.02.2026 23:18 3,2 °C 2,8 °C -1,1 °C 96 % 999,5 hPa 0,0 l/m² 0 min 0 min 0 W/m² 12,9 km/h (3 Bft) 100,00 %
03.02.2026 23:20 3,2 °C 2,8 °C -1,1 °C 96 % 999,5 hPa 0,0 l/m² 0 min 0 min 0 W/m² 12,9 km/h (3 Bft) 100,00 %
03.02.2026 23:22 3,2 °C 2,8 °C -1,1 °C 96 % 999,6 hPa 0,0 l/m² 0 min 0 min 0 W/m² 12,9 km/h (3 Bft) 95,74 %
03.02.2026 23:24 3,2 °C 2,8 °C -1,1 °C 97 % 999,6 hPa 0,0 l/m² 0 min 0 min 0 W/m² 12,9 km/h (3 Bft) 100,00 %
03.02.2026 23:26 3,2 °C 2,8 °C -1,1 °C 97 % 999,6 hPa 0,0 l/m² 0 min 0 min 0 W/m² 12,9 km/h (3 Bft) 100,00 %
03.02.2026 23:28 3,2 °C 2,8 °C -1,1 °C 97 % 999,6 hPa 0,0 l/m² 0 min 0 min 0 W/m² 12,9 km/h (3 Bft) 100,00 %
03.02.2026 23:30 3,2 °C 2,8 °C -1,1 °C 97 % 999,6 hPa 0,0 l/m² 0 min 0 min 0 W/m² 12,9 km/h (3 Bft) 100,00 %
03.02.2026 23:32 3,2 °C 2,8 °C -1,1 °C 97 % 999,6 hPa 0,0 l/m² 0 min 0 min 0 W/m² 22,5 km/h (4 Bft) 100,00 %
03.02.2026 23:34 3,2 °C 2,8 °C -1,1 °C 97 % 999,5 hPa 0,0 l/m² 0 min 0 min 0 W/m² 12,9 km/h (3 Bft) 100,00 %
03.02.2026 23:36 3,2 °C 2,8 °C -1,1 °C 97 % 999,6 hPa 0,0 l/m² 0 min 0 min 0 W/m² 9,7 km/h (2 Bft) 100,00 %
03.02.2026 23:38 3,2 °C 2,8 °C -1,1 °C 97 % 999,6 hPa 0,0 l/m² 0 min 0 min 0 W/m² 12,9 km/h (3 Bft) 95,74 %
03.02.2026 23:40 3,2 °C 2,8 °C -1,1 °C 97 % 999,6 hPa 0,0 l/m² 0 min 0 min 0 W/m² 12,9 km/h (3 Bft) 100,00 %
03.02.2026 23:42 3,2 °C 2,8 °C -1,1 °C 97 % 999,6 hPa 0,0 l/m² 0 min 0 min 0 W/m² 19,3 km/h (3 Bft) 97,83 %
03.02.2026 23:44 3,2 °C 2,8 °C -1,1 °C 97 % 999,5 hPa 0,0 l/m² 0 min 0 min 0 W/m² 19,3 km/h (3 Bft) 100,00 %
03.02.2026 23:46 3,2 °C 2,8 °C -1,1 °C 97 % 999,6 hPa 0,0 l/m² 0 min 0 min 0 W/m² 22,5 km/h (4 Bft) 100,00 %
03.02.2026 23:48 3,2 °C 2,8 °C -1,1 °C 97 % 999,6 hPa 0,0 l/m² 0 min 0 min 0 W/m² 12,9 km/h (3 Bft) 100,00 %
03.02.2026 23:50 3,2 °C 2,2 °C -1,1 °C 97 % 999,6 hPa 0,0 l/m² 0 min 0 min 0 W/m² 9,7 km/h (2 Bft) 100,00 %
03.02.2026 23:52 3,2 °C 2,2 °C -1,1 °C 96 % 999,6 hPa 0,0 l/m² 0 min 0 min 0 W/m² 12,9 km/h (3 Bft) 97,87 %
03.02.2026 23:54 3,2 °C 2,2 °C -1,1 °C 96 % 999,5 hPa 0,0 l/m² 0 min 0 min 0 W/m² 9,7 km/h (2 Bft) 97,83 %
03.02.2026 23:56 3,1 °C 2,2 °C -1,1 °C 96 % 999,6 hPa 0,0 l/m² 0 min 0 min 0 W/m² 12,9 km/h (3 Bft) 95,74 %
03.02.2026 23:58 3,1 °C 2,2 °C -1,1 °C 96 % 999,6 hPa 0,0 l/m² 0 min 0 min 0 W/m² 9,7 km/h (2 Bft) 97,87 %
_ Min-Zeit 07:32 06:46 06:56 00:00 17:10 - - - - 07:04 20:00
Minimum _ -0,7 °C -1,7 °C -5,0 °C 83 % 997,5 hPa - - - - 3,2 km/h (1 Bft) 26,67 %
_ Max-Zeit 18:02 00:32 18:02 23:24 00:00 11:22 00:00 12:12 13:36 17:20 01:02
Maximum _ 3,3 °C 2,8 °C -0,6 °C 97 % 1001,4 hPa 0,2 l/m² 0 min 4 min 151 W/m² 41,8 km/h
SO (6 Bft)
100,00 %
Durchschnitt _ 2,1 °C 1,6 °C -2,1 °C 90 % 998,7 hPa #5,3 l/m² #0 min. #2:12 h 60 W/m² 17,7 km/h (3 Bft) 96,67 %
© 2026 W. Hausmann